Observation data for Hackberry on 12/13/2019      Previous  Date       Current Mesonet Observations  Soil Data  Daily Summary Page  Observations in Plain Language
KHA3 130600Z 25005KT 03/02 A2995 RMK A01 T00330019  RH  091%=      5-min Rain = 0
KHA3 130601Z 25004KT 03/02 A2995 RMK A01 T00330019  RH  091%=      5-min Rain = 0
KHA3 130602Z 25004KT 03/02 A2995 RMK A01 T00330019  RH  091%=      5-min Rain = 0
KHA3 130603Z 25004KT 03/02 A2995 RMK A01 T00320019  RH  091%=      5-min Rain = 0
KHA3 130604Z 25004KT 03/02 A2995 RMK A01 T00320019  RH  091%=      5-min Rain = 0
KHA3 130605Z 25004KT 03/02 A2995 RMK A01 T00320019  RH  091%=      5-min Rain = 0
KHA3 130606Z 25005KT 03/02 A2995 RMK A01 T00320019  RH  091%=      5-min Rain = 0
KHA3 130607Z 25005KT 03/02 A2995 RMK A01 T00310018  RH  091%=      5-min Rain = 0
KHA3 130608Z 25004KT 03/02 A2995 RMK A01 T00310018  RH  092%=      5-min Rain = 0
KHA3 130609Z 26003KT 03/02 A2995 RMK A01 T00300018  RH  092%=      5-min Rain = 0
KHA3 130610Z 26003KT 03/02 A2995 RMK A01 T00300018  RH  092%=      5-min Rain = 0
KHA3 130611Z 26003KT 03/02 A2995 RMK A01 T00300018  RH  092%=      5-min Rain = 0
KHA3 130612Z 26003KT 03/02 A2995 RMK A01 T00300018  RH  092%=      5-min Rain = 0
KHA3 130613Z 26003KT 03/02 A2995 RMK A01 T00300018  RH  092%=      5-min Rain = 0
KHA3 130614Z 26003KT 03/02 A2996 RMK A01 T00300019  RH  092%=      5-min Rain = 0
KHA3 130615Z 26003KT 03/02 A2996 RMK A01 T00300019  RH  093%=      5-min Rain = 0
KHA3 130616Z 26003KT 03/02 A2996 RMK A01 T00300019  RH  093%=      5-min Rain = 0
KHA3 130617Z 27003KT 03/02 A2996 RMK A01 T00300019  RH  092%=      5-min Rain = 0
KHA3 130618Z 27003KT 03/02 A2996 RMK A01 T00300019  RH  092%=      5-min Rain = 0
KHA3 130619Z 27004KT 03/02 A2996 RMK A01 T00300019  RH  092%=      5-min Rain = 0
KHA3 130620Z 27004KT 03/02 A2996 RMK A01 T00300018  RH  092%=      5-min Rain = 0
KHA3 130621Z 27004KT 03/02 A2996 RMK A01 T00290017  RH  092%=      5-min Rain = 0
KHA3 130622Z 27004KT 03/02 A2996 RMK A01 T00280016  RH  092%=      5-min Rain = 0
KHA3 130623Z 26004KT 03/02 A2996 RMK A01 T00270016  RH  092%=      5-min Rain = 0
KHA3 130624Z 27004KT 03/02 A2996 RMK A01 T00270016  RH  093%=      5-min Rain = 0
KHA3 130625Z 28002KT 03/02 A2996 RMK A01 T00260015  RH  093%=      5-min Rain = 0
KHA3 130626Z 28002KT 03/01 A2996 RMK A01 T00250014  RH  092%=      5-min Rain = 0
KHA3 130627Z 29003KT 02/01 A2996 RMK A01 T00240014  RH  093%=      5-min Rain = 0
KHA3 130628Z 28003KT 02/02 A2996 RMK A01 T00240015  RH  094%=      5-min Rain = 0
KHA3 130629Z 28003KT 02/02 A2996 RMK A01 T00240015  RH  094%=      5-min Rain = 0
KHA3 130630Z 28003KT 02/02 A2996 RMK A01 T00240015  RH  094%=      5-min Rain = 0
KHA3 130631Z 27003KT 02/02 A2996 RMK A01 T00240015  RH  094%=      5-min Rain = 0
KHA3 130632Z 26003KT 02/02 A2996 RMK A01 T00240015  RH  094%=      5-min Rain = 0
KHA3 130633Z 26004KT 02/01 A2995 RMK A01 T00230014  RH  094%=      5-min Rain = 0
KHA3 130634Z 25004KT 02/01 A2995 RMK A01 T00230014  RH  094%=      5-min Rain = 0
KHA3 130635Z 25004KT 02/01 A2995 RMK A01 T00220013  RH  093%=      5-min Rain = 0
KHA3 130636Z 25004KT 02/01 A2995 RMK A01 T00210011  RH  093%=      5-min Rain = 0
KHA3 130637Z 26005KT 02/01 A2995 RMK A01 T00200011  RH  094%=      5-min Rain = 0
KHA3 130638Z 26005KT 02/01 A2995 RMK A01 T00200011  RH  094%=      5-min Rain = 0
KHA3 130639Z 26004KT 02/01 A2995 RMK A01 T00200012  RH  094%=      5-min Rain = 0
KHA3 130640Z 27004KT 02/01 A2995 RMK A01 T00190012  RH  095%=      5-min Rain = 0
KHA3 130641Z 27004KT 02/01 A2995 RMK A01 T00190011  RH  095%=      5-min Rain = 0
KHA3 130642Z 27004KT 02/01 A2995 RMK A01 T00190011  RH  095%=      5-min Rain = 0
KHA3 130643Z 27004KT 02/01 A2995 RMK A01 T00190012  RH  095%=      5-min Rain = 0
KHA3 130644Z 27004KT 02/01 A2995 RMK A01 T00190012  RH  095%=      5-min Rain = 0
KHA3 130645Z 27004KT 02/01 A2995 RMK A01 T00190012  RH  095%=      5-min Rain = 0
KHA3 130646Z 28004KT 02/01 A2995 RMK A01 T00190013  RH  095%=      5-min Rain = 0
KHA3 130647Z 27004KT 02/01 A2995 RMK A01 T00190012  RH  095%=      5-min Rain = 0
KHA3 130648Z 27004KT 02/01 A2995 RMK A01 T00190012  RH  095%=      5-min Rain = 0
KHA3 130649Z 27004KT 02/01 A2994 RMK A01 T00190011  RH  095%=      5-min Rain = 0
KHA3 130650Z 27004KT 02/01 A2994 RMK A01 T00180010  RH  095%=      5-min Rain = 0
KHA3 130651Z 27004KT 02/01 A2994 RMK A01 T00170009  RH  095%=      5-min Rain = 0
KHA3 130652Z 28004KT 02/01 A2994 RMK A01 T00170010  RH  095%=      5-min Rain = 0
KHA3 130653Z 28004KT 02/01 A2994 RMK A01 T00170010  RH  095%=      5-min Rain = 0
KHA3 130654Z 28004KT 02/01 A2995 RMK A01 T00170011  RH  095%=      5-min Rain = 0
KHA3 130655Z 29004KT 02/01 A2995 RMK A01 T00180011  RH  095%=      5-min Rain = 0
KHA3 130656Z 28004KT 02/01 A2995 RMK A01 T00180010  RH  095%=      5-min Rain = 0
KHA3 130657Z 28003KT 02/01 A2994 RMK A01 T00180010  RH  094%=      5-min Rain = 0
KHA3 130658Z 27004KT 02/01 A2994 RMK A01 T00180009  RH  094%=      5-min Rain = 0
KHA3 130659Z 27004KT 02/01 A2994 RMK A01 T00180009  RH  094%=      5-min Rain = 0
KHA3 130700Z 27003KT 02/01 A2994 RMK A01 T00180009  RH  094%=      5-min Rain = 0
KHA3 130701Z 26003KT 02/01 A2994 RMK A01 T00180009  RH  094%=      5-min Rain = 0
KHA3 130702Z 27003KT 02/01 A2994 RMK A01 T00180010  RH  094%=      5-min Rain = 0
KHA3 130703Z 26003KT 02/01 A2994 RMK A01 T00190010  RH  094%=      5-min Rain = 0
KHA3 130704Z 26003KT 02/01 A2994 RMK A01 T00200011  RH  094%=      5-min Rain = 0
KHA3 130705Z 26003KT 02/01 A2994 RMK A01 T00190010  RH  094%=      5-min Rain = 0
KHA3 130706Z 25003KT 02/01 A2994 RMK A01 T00200010  RH  093%=      5-min Rain = 0
KHA3 130707Z 26003KT 02/01 A2994 RMK A01 T00190009  RH  093%=      5-min Rain = 0
KHA3 130708Z 26003KT 02/01 A2994 RMK A01 T00190008  RH  093%=      5-min Rain = 0
KHA3 130709Z 26003KT 02/01 A2994 RMK A01 T00190008  RH  093%=      5-min Rain = 0
KHA3 130710Z 26003KT 02/01 A2994 RMK A01 T00190009  RH  093%=      5-min Rain = 0
KHA3 130711Z 27003KT 02/01 A2994 RMK A01 T00200010  RH  093%=      5-min Rain = 0
KHA3 130712Z 27003KT 02/01 A2993 RMK A01 T00200010  RH  093%=      5-min Rain = 0
KHA3 130713Z 27003KT 02/01 A2993 RMK A01 T00200010  RH  093%=      5-min Rain = 0
KHA3 130714Z 27003KT 02/01 A2993 RMK A01 T00210011  RH  093%=      5-min Rain = 0
KHA3 130715Z 27003KT 02/01 A2993 RMK A01 T00210010  RH  093%=      5-min Rain = 0
KHA3 130716Z 27003KT 02/01 A2993 RMK A01 T00210009  RH  092%=      5-min Rain = 0
KHA3 130717Z 28003KT 02/01 A2993 RMK A01 T00200009  RH  092%=      5-min Rain = 0
KHA3 130718Z 28003KT 02/01 A2993 RMK A01 T00200009  RH  093%=      5-min Rain = 0
KHA3 130719Z 28004KT 02/01 A2993 RMK A01 T00200010  RH  093%=      5-min Rain = 0
KHA3 130720Z 29004KT 02/01 A2993 RMK A01 T00200009  RH  093%=      5-min Rain = 0
KHA3 130721Z 30004KT 02/01 A2993 RMK A01 T00200009  RH  092%=      5-min Rain = 0
KHA3 130722Z 30004KT 02/01 A2993 RMK A01 T00200010  RH  093%=      5-min Rain = 0
KHA3 130723Z 31004KT 02/01 A2993 RMK A01 T00210011  RH  093%=      5-min Rain = 0
KHA3 130724Z 31004KT 02/01 A2993 RMK A01 T00220012  RH  093%=      5-min Rain = 0
KHA3 130725Z 30004KT 02/01 A2993 RMK A01 T00220012  RH  093%=      5-min Rain = 0
KHA3 130726Z 31004KT 02/01 A2993 RMK A01 T00220012  RH  093%=      5-min Rain = 0
KHA3 130727Z 30004KT 02/01 A2993 RMK A01 T00230012  RH  093%=      5-min Rain = 0
KHA3 130728Z 30004KT 02/01 A2993 RMK A01 T00230012  RH  092%=      5-min Rain = 0
KHA3 130729Z 30004KT 02/01 A2993 RMK A01 T00230012  RH  092%=      5-min Rain = 0
KHA3 130730Z 30005KT 02/01 A2993 RMK A01 T00230012  RH  092%=      5-min Rain = 0
KHA3 130731Z 30004KT 02/01 A2993 RMK A01 T00230012  RH  092%=      5-min Rain = 0
KHA3 130732Z 30004KT 02/01 A2993 RMK A01 T00230011  RH  092%=      5-min Rain = 0
KHA3 130733Z 30004KT 02/01 A2993 RMK A01 T00220011  RH  092%=      5-min Rain = 0
KHA3 130734Z 31004KT 02/01 A2993 RMK A01 T00220011  RH  092%=      5-min Rain = 0
KHA3 130735Z 31004KT 02/01 A2993 RMK A01 T00220011  RH  092%=      5-min Rain = 0
KHA3 130736Z 31004KT 02/01 A2993 RMK A01 T00210011  RH  093%=      5-min Rain = 0
KHA3 130737Z 31004KT 02/01 A2993 RMK A01 T00220011  RH  093%=      5-min Rain = 0
KHA3 130738Z 31004KT 02/01 A2993 RMK A01 T00210011  RH  093%=      5-min Rain = 0
KHA3 130739Z 31004KT 02/01 A2993 RMK A01 T00210011  RH  093%=      5-min Rain = 0
KHA3 130740Z 32003KT 02/01 A2993 RMK A01 T00210011  RH  093%=      5-min Rain = 0
KHA3 130741Z 32003KT 02/01 A2993 RMK A01 T00210011  RH  093%=      5-min Rain = 0
KHA3 130742Z 32004KT 02/01 A2993 RMK A01 T00210011  RH  093%=      5-min Rain = 0
KHA3 130743Z 32004KT 02/01 A2992 RMK A01 T00210011  RH  093%=      5-min Rain = 0
KHA3 130744Z 32004KT 02/01 A2992 RMK A01 T00210011  RH  093%=      5-min Rain = 0
KHA3 130745Z 33004KT 02/01 A2992 RMK A01 T00210011  RH  094%=      5-min Rain = 0
KHA3 130746Z 33003KT 02/01 A2992 RMK A01 T00210012  RH  094%=      5-min Rain = 0
KHA3 130747Z 33004KT 02/01 A2993 RMK A01 T00200011  RH  094%=      5-min Rain = 0
KHA3 130748Z 32004KT 02/01 A2993 RMK A01 T00200011  RH  094%=      5-min Rain = 0
KHA3 130749Z 32004KT 02/01 A2993 RMK A01 T00200011  RH  094%=      5-min Rain = 0
KHA3 130750Z 32004KT 02/01 A2993 RMK A01 T00200011  RH  094%=      5-min Rain = 0
KHA3 130751Z 32005KT 02/01 A2993 RMK A01 T00200011  RH  094%=      5-min Rain = 0
KHA3 130752Z 32005KT 02/01 A2993 RMK A01 T00200012  RH  094%=      5-min Rain = 0
KHA3 130753Z 32005KT 02/01 A2993 RMK A01 T00200011  RH  094%=      5-min Rain = 0
KHA3 130754Z 32005KT 02/01 A2993 RMK A01 T00200011  RH  094%=      5-min Rain = 0
KHA3 130755Z 32005KT 02/01 A2993 RMK A01 T00200011  RH  094%=      5-min Rain = 0
KHA3 130756Z 32005KT 02/01 A2993 RMK A01 T00190010  RH  094%=      5-min Rain = 0
KHA3 130757Z 32004KT 02/01 A2993 RMK A01 T00190010  RH  094%=      5-min Rain = 0
KHA3 130758Z 32005KT 02/01 A2993 RMK A01 T00190010  RH  094%=      5-min Rain = 0
KHA3 130759Z 31005KT 02/01 A2993 RMK A01 T00180010  RH  094%=      5-min Rain = 0
KHA3 130800Z 31005KT 02/01 A2993 RMK A01 T00190011  RH  094%=      5-min Rain = 0
KHA3 130801Z 31005KT 02/01 A2993 RMK A01 T00190011  RH  095%=      5-min Rain = 0
KHA3 130802Z 31004KT 02/01 A2993 RMK A01 T00180011  RH  095%=      5-min Rain = 0
KHA3 130803Z 30005KT 02/01 A2993 RMK A01 T00180010  RH  095%=      5-min Rain = 0
KHA3 130804Z 30005KT 02/01 A2993 RMK A01 T00180011  RH  095%=      5-min Rain = 0
KHA3 130805Z 30005KT 02/01 A2993 RMK A01 T00180010  RH  095%=      5-min Rain = 0
KHA3 130806Z 29005KT 02/01 A2993 RMK A01 T00180010  RH  095%=      5-min Rain = 0
KHA3 130807Z 29004KT 02/01 A2993 RMK A01 T00180010  RH  095%=      5-min Rain = 0
KHA3 130808Z 29004KT 02/01 A2993 RMK A01 T00180011  RH  095%=      5-min Rain = 0
KHA3 130809Z 28004KT 02/01 A2993 RMK A01 T00180011  RH  095%=      5-min Rain = 0
KHA3 130810Z 28003KT 02/01 A2992 RMK A01 T00180010  RH  095%=      5-min Rain = 0
KHA3 130811Z 29003KT 02/01 A2992 RMK A01 T00180011  RH  095%=      5-min Rain = 0
KHA3 130812Z 28003KT 02/01 A2992 RMK A01 T00180011  RH  095%=      5-min Rain = 0
KHA3 130813Z 28003KT 02/01 A2992 RMK A01 T00180010  RH  095%=      5-min Rain = 0
KHA3 130814Z 28003KT 02/01 A2992 RMK A01 T00170010  RH  095%=      5-min Rain = 0
KHA3 130815Z 28003KT 02/01 A2992 RMK A01 T00170010  RH  095%=      5-min Rain = 0
KHA3 130816Z 28003KT 02/01 A2992 RMK A01 T00170010  RH  095%=      5-min Rain = 0
KHA3 130817Z 28004KT 02/01 A2992 RMK A01 T00180010  RH  095%=      5-min Rain = 0
KHA3 130818Z 29004KT 02/01 A2992 RMK A01 T00170010  RH  095%=      5-min Rain = 0
KHA3 130819Z 29004KT 02/01 A2992 RMK A01 T00170010  RH  095%=      5-min Rain = 0
KHA3 130820Z 30004KT 02/01 A2992 RMK A01 T00170010  RH  095%=      5-min Rain = 0
KHA3 130821Z 29005KT 02/01 A2992 RMK A01 T00170010  RH  095%=      5-min Rain = 0
KHA3 130822Z 29005KT 02/01 A2992 RMK A01 T00170010  RH  095%=      5-min Rain = 0
KHA3 130823Z 29005KT 02/01 A2993 RMK A01 T00170010  RH  095%=      5-min Rain = 0
KHA3 130824Z 29005KT 02/01 A2993 RMK A01 T00170010  RH  095%=      5-min Rain = 0
KHA3 130825Z 29005KT 02/01 A2993 RMK A01 T00160009  RH  095%=      5-min Rain = 0
KHA3 130826Z 29005KT 02/01 A2993 RMK A01 T00160009  RH  095%=      5-min Rain = 0
KHA3 130827Z 29005KT 02/01 A2993 RMK A01 T00150008  RH  095%=      5-min Rain = 0
KHA3 130828Z 29005KT 02/01 A2993 RMK A01 T00150008  RH  095%=      5-min Rain = 0
KHA3 130829Z 30005KT 02/01 A2993 RMK A01 T00150008  RH  095%=      5-min Rain = 0
KHA3 130830Z 30006KT 02/01 A2993 RMK A01 T00150008  RH  095%=      5-min Rain = 0
KHA3 130831Z 30005KT 01/01 A2993 RMK A01 T00140008  RH  095%=      5-min Rain = 0
KHA3 130832Z 30005KT 01/01 A2993 RMK A01 T00140008  RH  095%=      5-min Rain = 0
KHA3 130833Z 30005KT 01/01 A2993 RMK A01 T00130007  RH  095%=      5-min Rain = 0
KHA3 130834Z 30005KT 01/01 A2992 RMK A01 T00130007  RH  095%=      5-min Rain = 0
KHA3 130835Z 30005KT 01/01 A2992 RMK A01 T00130007  RH  096%=      5-min Rain = 0
KHA3 130836Z 29005KT 01/01 A2992 RMK A01 T00130007  RH  096%=      5-min Rain = 0
KHA3 130837Z 28005KT 01/01 A2992 RMK A01 T00130007  RH  096%=      5-min Rain = 0
KHA3 130838Z 28005KT 01/01 A2993 RMK A01 T00120006  RH  096%=      5-min Rain = 0
KHA3 130839Z 29005KT 01/01 A2993 RMK A01 T00110005  RH  096%=      5-min Rain = 0
KHA3 130840Z 29005KT 01/01 A2993 RMK A01 T00110005  RH  096%=      5-min Rain = 0
KHA3 130841Z 29005KT 01/01 A2993 RMK A01 T00110005  RH  096%=      5-min Rain = 0
KHA3 130842Z 29005KT 01/01 A2993 RMK A01 T00110005  RH  096%=      5-min Rain = 0
KHA3 130843Z 29005KT 01/01 A2993 RMK A01 T00100005  RH  096%=      5-min Rain = 0
KHA3 130844Z 30005KT 01/01 A2993 RMK A01 T00100005  RH  096%=      5-min Rain = 0
KHA3 130845Z 30005KT 01/01 A2993 RMK A01 T00110006  RH  096%=      5-min Rain = 0
KHA3 130846Z 30005KT 01/01 A2993 RMK A01 T00100005  RH  096%=      5-min Rain = 0
KHA3 130847Z 30005KT 01/00 A2993 RMK A01 T00090004  RH  096%=      5-min Rain = 0
KHA3 130848Z 30005KT 01/00 A2993 RMK A01 T00090004  RH  096%=      5-min Rain = 0
KHA3 130849Z 30005KT 01/00 A2993 RMK A01 T00090003  RH  096%=      5-min Rain = 0
KHA3 130850Z 30005KT 01/00 A2993 RMK A01 T00090004  RH  096%=      5-min Rain = 0
KHA3 130851Z 30005KT 01/00 A2993 RMK A01 T00090004  RH  096%=      5-min Rain = 0
KHA3 130852Z 30005KT 01/00 A2993 RMK A01 T00080003  RH  096%=      5-min Rain = 0
KHA3 130853Z 30005KT 01/00 A2993 RMK A01 T00080003  RH  096%=      5-min Rain = 0
KHA3 130854Z 30005KT 01/00 A2993 RMK A01 T00080002  RH  096%=      5-min Rain = 0
KHA3 130855Z 30004KT 01/00 A2992 RMK A01 T00080003  RH  097%=      5-min Rain = 0
KHA3 130856Z 29004KT 01/00 A2992 RMK A01 T00080003  RH  097%=      5-min Rain = 0
KHA3 130857Z 30004KT 01/00 A2992 RMK A01 T00080003  RH  097%=      5-min Rain = 0
KHA3 130858Z 29004KT 01/00 A2992 RMK A01 T00080003  RH  097%=      5-min Rain = 0
KHA3 130859Z 29004KT 01/00 A2992 RMK A01 T00080004  RH  097%=      5-min Rain = 0
KHA3 130900Z 29005KT 01/00 A2992 RMK A01 T00090004  RH  097%=      5-min Rain = 0
KHA3 130901Z 29004KT 01/00 A2992 RMK A01 T00090004  RH  097%=      5-min Rain = 0
KHA3 130902Z 30005KT 01/00 A2992 RMK A01 T00090004  RH  097%=      5-min Rain = 0
KHA3 130903Z 30004KT 01/00 A2992 RMK A01 T00090004  RH  097%=      5-min Rain = 0
KHA3 130904Z 30004KT 01/00 A2992 RMK A01 T00090004  RH  097%=      5-min Rain = 0
KHA3 130905Z 29004KT 01/00 A2992 RMK A01 T00090004  RH  096%=      5-min Rain = 0
KHA3 130906Z 30005KT 01/00 A2992 RMK A01 T00090004  RH  096%=      5-min Rain = 0
KHA3 130907Z 30005KT 01/00 A2992 RMK A01 T00090004  RH  096%=      5-min Rain = 0
KHA3 130908Z 30005KT 01/00 A2992 RMK A01 T00090004  RH  096%=      5-min Rain = 0
KHA3 130909Z 30005KT 01/00 A2992 RMK A01 T00090003  RH  096%=      5-min Rain = 0
KHA3 130910Z 30005KT 01/00 A2992 RMK A01 T00090003  RH  096%=      5-min Rain = 0
KHA3 130911Z 30005KT 01/00 A2992 RMK A01 T00090003  RH  096%=      5-min Rain = 0
KHA3 130912Z 30005KT 01/00 A2992 RMK A01 T00090003  RH  096%=      5-min Rain = 0
KHA3 130913Z 29005KT 01/00 A2992 RMK A01 T00090002  RH  095%=      5-min Rain = 0
KHA3 130914Z 29004KT 01/00 A2992 RMK A01 T00090003  RH  095%=      5-min Rain = 0
KHA3 130915Z 29004KT 01/00 A2992 RMK A01 T00100003  RH  095%=      5-min Rain = 0
KHA3 130916Z 29004KT 01/00 A2992 RMK A01 T00100003  RH  095%=      5-min Rain = 0
KHA3 130917Z 29005KT 01/00 A2992 RMK A01 T00100003  RH  095%=      5-min Rain = 0
KHA3 130918Z 29004KT 01/00 A2992 RMK A01 T00100003  RH  095%=      5-min Rain = 0
KHA3 130919Z 29004KT 01/00 A2992 RMK A01 T00100003  RH  095%=      5-min Rain = 0
KHA3 130920Z 30005KT 01/00 A2992 RMK A01 T00100003  RH  095%=      5-min Rain = 0
KHA3 130921Z 30005KT 01/00 A2992 RMK A01 T00100003  RH  095%=      5-min Rain = 0
KHA3 130922Z 30005KT 01/00 A2992 RMK A01 T00100003  RH  095%=      5-min Rain = 0
KHA3 130923Z 30005KT 01/00 A2992 RMK A01 T00110004  RH  095%=      5-min Rain = 0
KHA3 130924Z 30005KT 01/00 A2992 RMK A01 T00110004  RH  095%=      5-min Rain = 0
KHA3 130925Z 30005KT 01/00 A2992 RMK A01 T00110003  RH  095%=      5-min Rain = 0
KHA3 130926Z 30004KT 01/00 A2992 RMK A01 T00110003  RH  095%=      5-min Rain = 0
KHA3 130927Z 30004KT 01/00 A2992 RMK A01 T00110003  RH  095%=      5-min Rain = 0
KHA3 130928Z 30005KT 01/00 A2992 RMK A01 T00110003  RH  095%=      5-min Rain = 0
KHA3 130929Z 29005KT 01/00 A2992 RMK A01 T00110004  RH  095%=      5-min Rain = 0
KHA3 130930Z 30005KT 01/00 A2992 RMK A01 T00110003  RH  095%=      5-min Rain = 0
KHA3 130931Z 30005KT 01/00 A2992 RMK A01 T00100003  RH  095%=      5-min Rain = 0
KHA3 130932Z 29004KT 01/00 A2992 RMK A01 T00100003  RH  095%=      5-min Rain = 0
KHA3 130933Z 30005KT 01/00 A2992 RMK A01 T00110004  RH  095%=      5-min Rain = 0
KHA3 130934Z 30005KT 01/00 A2992 RMK A01 T00100003  RH  095%=      5-min Rain = 0
KHA3 130935Z 30005KT 01/00 A2992 RMK A01 T00100003  RH  095%=      5-min Rain = 0
KHA3 130936Z 30005KT 01/00 A2992 RMK A01 T00100003  RH  095%=      5-min Rain = 0
KHA3 130937Z 30005KT 01/00 A2992 RMK A01 T00100003  RH  095%=      5-min Rain = 0
KHA3 130938Z 30004KT 01/00 A2992 RMK A01 T00100003  RH  095%=      5-min Rain = 0
KHA3 130939Z 29004KT 01/00 A2992 RMK A01 T00100003  RH  095%=      5-min Rain = 0
KHA3 130940Z 30004KT 01/00 A2992 RMK A01 T00100003  RH  095%=      5-min Rain = 0
KHA3 130941Z 30004KT 01/00 A2992 RMK A01 T00100003  RH  095%=      5-min Rain = 0
KHA3 130942Z 29004KT 01/00 A2992 RMK A01 T00100003  RH  095%=      5-min Rain = 0
KHA3 130943Z 30004KT 01/00 A2992 RMK A01 T00100003  RH  095%=      5-min Rain = 0
KHA3 130944Z 30004KT 01/00 A2991 RMK A01 T00090002  RH  095%=      5-min Rain = 0
KHA3 130945Z 30004KT 01/00 A2991 RMK A01 T00100003  RH  095%=      5-min Rain = 0
KHA3 130946Z 29004KT 01/00 A2991 RMK A01 T00100003  RH  095%=      5-min Rain = 0
KHA3 130947Z 29004KT 01/00 A2991 RMK A01 T00100004  RH  095%=      5-min Rain = 0
KHA3 130948Z 30004KT 01/00 A2991 RMK A01 T00100004  RH  095%=      5-min Rain = 0
KHA3 130949Z 29004KT 01/00 A2991 RMK A01 T00110004  RH  095%=      5-min Rain = 0
KHA3 130950Z 29004KT 01/00 A2991 RMK A01 T00100003  RH  095%=      5-min Rain = 0
KHA3 130951Z 29004KT 01/00 A2991 RMK A01 T00110004  RH  095%=      5-min Rain = 0
KHA3 130952Z 29004KT 01/00 A2991 RMK A01 T00100003  RH  095%=      5-min Rain = 0
KHA3 130953Z 29004KT 01/00 A2991 RMK A01 T00100003  RH  095%=      5-min Rain = 0
KHA3 130954Z 29004KT 01/00 A2991 RMK A01 T00100002  RH  095%=      5-min Rain = 0
KHA3 130955Z 28004KT 01/00 A2991 RMK A01 T00100002  RH  095%=      5-min Rain = 0
KHA3 130956Z 28004KT 01/00 A2991 RMK A01 T00090002  RH  095%=      5-min Rain = 0
KHA3 130957Z 28003KT 01/00 A2991 RMK A01 T00100002  RH  095%=      5-min Rain = 0
KHA3 130958Z 28004KT 01/00 A2991 RMK A01 T00090001  RH  095%=      5-min Rain = 0
KHA3 130959Z 28004KT 01/00 A2991 RMK A01 T00090001  RH  095%=      5-min Rain = 0
KHA3 131000Z 28004KT 01/00 A2991 RMK A01 T00080001  RH  095%=      5-min Rain = 0
KHA3 131001Z 28004KT 01/00 A2991 RMK A01 T00080001  RH  095%=      5-min Rain = 0
KHA3 131002Z 28004KT 01/00 A2991 RMK A01 T00080001  RH  095%=      5-min Rain = 0
KHA3 131003Z 28004KT 01/00 A2991 RMK A01 T00080001  RH  095%=      5-min Rain = 0
KHA3 131004Z 29004KT 01/00 A2991 RMK A01 T00080001  RH  095%=      5-min Rain = 0
KHA3 131005Z 29004KT 01/00 A2991 RMK A01 T00080001  RH  095%=      5-min Rain = 0
KHA3 131006Z 29005KT 01/00 A2991 RMK A01 T00080001  RH  095%=      5-min Rain = 0
KHA3 131007Z 29005KT 01/00 A2991 RMK A01 T00080001  RH  095%=      5-min Rain = 0
KHA3 131008Z 28005KT 01/00 A2991 RMK A01 T00080001  RH  095%=      5-min Rain = 0
KHA3 131009Z 28004KT 01/00 A2991 RMK A01 T00080001  RH  095%=      5-min Rain = 0
KHA3 131010Z 27004KT 01/00 A2991 RMK A01 T00080001  RH  096%=      5-min Rain = 0
KHA3 131011Z 27004KT 01/00 A2991 RMK A01 T00080001  RH  095%=      5-min Rain = 0
KHA3 131012Z 27004KT 01/00 A2991 RMK A01 T00080001  RH  095%=      5-min Rain = 0
KHA3 131013Z 27004KT 01/00 A2991 RMK A01 T00080001  RH  095%=      5-min Rain = 0
KHA3 131014Z 27004KT 01/00 A2991 RMK A01 T00080001  RH  095%=      5-min Rain = 0
KHA3 131015Z 28004KT 01/00 A2991 RMK A01 T00080001  RH  095%=      5-min Rain = 0
KHA3 131016Z 28004KT 01/00 A2991 RMK A01 T00070000  RH  095%=      5-min Rain = 0
KHA3 131017Z 28004KT 01/00 A2991 RMK A01 T00070000  RH  095%=      5-min Rain = 0
KHA3 131018Z 28004KT 01/00 A2991 RMK A01 T000700-0  RH  095%=      5-min Rain = 0
KHA3 131019Z 28004KT 01/00 A299 RMK A01 T000700-0  RH  095%=      5-min Rain = 0
KHA3 131020Z 27004KT 01/M00 A299 RMK A01 T00061001  RH  095%=      5-min Rain = 0
KHA3 131021Z 27004KT 01/00 A299 RMK A01 T000600-0  RH  095%=      5-min Rain = 0
KHA3 131022Z 26004KT 01/00 A299 RMK A01 T000600-0  RH  095%=      5-min Rain = 0
KHA3 131023Z 26004KT 01/00 A299 RMK A01 T00070000  RH  095%=      5-min Rain = 0
KHA3 131024Z 26005KT 01/00 A299 RMK A01 T000600-0  RH  095%=      5-min Rain = 0
KHA3 131025Z 26005KT 01/00 A299 RMK A01 T000600-0  RH  095%=      5-min Rain = 0
KHA3 131026Z 26005KT 01/M00 A299 RMK A01 T00061001  RH  095%=      5-min Rain = 0
KHA3 131027Z 26006KT 01/M00 A299 RMK A01 T00061001  RH  095%=      5-min Rain = 0
KHA3 131028Z 25006KT 01/M00 A299 RMK A01 T00061001  RH  095%=      5-min Rain = 0
KHA3 131029Z 25006KT 01/M00 A299 RMK A01 T00061001  RH  095%=      5-min Rain = 0
KHA3 131030Z 25006KT 01/M00 A299 RMK A01 T00061001  RH  095%=      5-min Rain = 0
KHA3 131031Z 25006KT 01/M00 A299 RMK A01 T00061001  RH  095%=      5-min Rain = 0
KHA3 131032Z 25006KT 01/M00 A299 RMK A01 T00061001  RH  095%=      5-min Rain = 0
KHA3 131033Z 25006KT 01/M00 A299 RMK A01 T00061001  RH  095%=      5-min Rain = 0
KHA3 131034Z 25006KT 01/M00 A299 RMK A01 T00061001  RH  095%=      5-min Rain = 0
KHA3 131035Z 26006KT 01/M00 A299 RMK A01 T00051002  RH  095%=      5-min Rain = 0
KHA3 131036Z 26005KT 00/M00 A299 RMK A01 T00041003  RH  095%=      5-min Rain = 0
KHA3 131037Z 26006KT 00/M00 A299 RMK A01 T00031004  RH  095%=      5-min Rain = 0
KHA3 131038Z 26006KT 00/M01 A299 RMK A01 T00021005  RH  095%=      5-min Rain = 0
KHA3 131039Z 26006KT 00/M01 A299 RMK A01 T00021006  RH  095%=      5-min Rain = 0
KHA3 131040Z 26006KT 00/M01 A299 RMK A01 T00021005  RH  095%=      5-min Rain = 0
KHA3 131041Z 26006KT 00/M01 A299 RMK A01 T00021005  RH  096%=      5-min Rain = 0
KHA3 131042Z 26006KT 00/M00 A299 RMK A01 T00021004  RH  096%=      5-min Rain = 0
KHA3 131043Z 26006KT 00/M00 A299 RMK A01 T00021004  RH  096%=      5-min Rain = 0
KHA3 131044Z 26006KT 00/M00 A299 RMK A01 T00021004  RH  096%=      5-min Rain = 0
KHA3 131045Z 27006KT 00/M00 A299 RMK A01 T00021004  RH  096%=      5-min Rain = 0
KHA3 131046Z 27006KT 00/M00 A299 RMK A01 T00021004  RH  096%=      5-min Rain = 0
KHA3 131047Z 27006KT 00/M00 A299 RMK A01 T00021004  RH  096%=      5-min Rain = 0
KHA3 131048Z 27006KT 00/M00 A299 RMK A01 T00021004  RH  096%=      5-min Rain = 0
KHA3 131049Z 27006KT 00/M00 A299 RMK A01 T00031003  RH  096%=      5-min Rain = 0
KHA3 131050Z 27006KT 00/M00 A299 RMK A01 T00031003  RH  096%=      5-min Rain = 0
KHA3 131051Z 27006KT 00/M00 A299 RMK A01 T00031003  RH  096%=      5-min Rain = 0
KHA3 131052Z 26006KT 00/M00 A299 RMK A01 T00031003  RH  096%=      5-min Rain = 0
KHA3 131053Z 26006KT 00/M00 A299 RMK A01 T00031003  RH  096%=      5-min Rain = 0
KHA3 131054Z 26005KT 00/M00 A299 RMK A01 T00031003  RH  096%=      5-min Rain = 0
KHA3 131055Z 26005KT 00/M00 A299 RMK A01 T00031004  RH  095%=      5-min Rain = 0
KHA3 131056Z 26005KT 00/M00 A299 RMK A01 T00031004  RH  095%=      5-min Rain = 0
KHA3 131057Z 26005KT 00/M00 A299 RMK A01 T00031004  RH  095%=      5-min Rain = 0
KHA3 131058Z 27005KT 00/M00 A299 RMK A01 T00021004  RH  095%=      5-min Rain = 0
KHA3 131059Z 27005KT 00/M00 A299 RMK A01 T00021004  RH  096%=      5-min Rain = 0
KHA3 131100Z 27005KT 00/M00 A299 RMK A01 T00021004  RH  095%=      5-min Rain = 0
KHA3 131101Z 27005KT 00/M01 A299 RMK A01 T00021005  RH  095%=      5-min Rain = 0
KHA3 131102Z 27005KT 00/M01 A2991 RMK A01 T00021005  RH  095%=      5-min Rain = 0
KHA3 131103Z 27005KT 00/M00 A2991 RMK A01 T00021004  RH  096%=      5-min Rain = 0
KHA3 131104Z 27005KT 00/M00 A2991 RMK A01 T00021004  RH  096%=      5-min Rain = 0
KHA3 131105Z 26005KT 00/M00 A2991 RMK A01 T00021004  RH  096%=      5-min Rain = 0
KHA3 131106Z 26006KT 00/M00 A2991 RMK A01 T00021004  RH  096%=      5-min Rain = 0
KHA3 131107Z 26006KT 00/M00 A2991 RMK A01 T00021004  RH  096%=      5-min Rain = 0
KHA3 131108Z 26006KT 00/M00 A2991 RMK A01 T00021004  RH  096%=      5-min Rain = 0
KHA3 131109Z 26006KT 00/M01 A2991 RMK A01 T00021005  RH  096%=      5-min Rain = 0
KHA3 131110Z 26006KT 00/M01 A2991 RMK A01 T00021005  RH  096%=      5-min Rain = 0
KHA3 131111Z 26006KT 00/M01 A2991 RMK A01 T00021005  RH  095%=      5-min Rain = 0
KHA3 131112Z 27006KT 00/M01 A2991 RMK A01 T00021005  RH  095%=      5-min Rain = 0
KHA3 131113Z 27007KT 00/M01 A2991 RMK A01 T00021005  RH  095%=      5-min Rain = 0
KHA3 131114Z 27007KT 00/M00 A2991 RMK A01 T00021004  RH  095%=      5-min Rain = 0
KHA3 131115Z 27007KT 00/M00 A2991 RMK A01 T00031004  RH  095%=      5-min Rain = 0
KHA3 131116Z 27007KT 00/M00 A2991 RMK A01 T00031004  RH  095%=      5-min Rain = 0
KHA3 131117Z 27007KT 00/M00 A2991 RMK A01 T00031004  RH  095%=      5-min Rain = 0
KHA3 131118Z 27006KT 00/M00 A2991 RMK A01 T00031004  RH  095%=      5-min Rain = 0
KHA3 131119Z 27006KT 00/M00 A299 RMK A01 T00041004  RH  095%=      5-min Rain = 0
KHA3 131120Z 27006KT 00/M00 A299 RMK A01 T00041003  RH  095%=      5-min Rain = 0
KHA3 131121Z 27006KT 00/M00 A299 RMK A01 T00041004  RH  095%=      5-min Rain = 0
KHA3 131122Z 27006KT 00/M00 A299 RMK A01 T00041004  RH  095%=      5-min Rain = 0
KHA3 131123Z 27006KT 00/M00 A299 RMK A01 T00041004  RH  095%=      5-min Rain = 0
KHA3 131124Z 27006KT 00/M00 A299 RMK A01 T00031004  RH  095%=      5-min Rain = 0
KHA3 131125Z 27006KT 00/M00 A299 RMK A01 T00031004  RH  095%=      5-min Rain = 0
KHA3 131126Z 27006KT 00/M00 A299 RMK A01 T00031004  RH  095%=      5-min Rain = 0
KHA3 131127Z 27005KT 00/M01 A299 RMK A01 T00031005  RH  095%=      5-min Rain = 0
KHA3 131128Z 26006KT 00/M01 A299 RMK A01 T00021005  RH  095%=      5-min Rain = 0
KHA3 131129Z 26006KT 00/M01 A299 RMK A01 T00031005  RH  095%=      5-min Rain = 0
KHA3 131130Z 27006KT 00/M01 A2991 RMK A01 T00021005  RH  095%=      5-min Rain = 0
KHA3 131131Z 27006KT 00/M01 A2991 RMK A01 T00021005  RH  095%=      5-min Rain = 0
KHA3 131132Z 27006KT 00/M01 A2991 RMK A01 T00021005  RH  095%=      5-min Rain = 0
KHA3 131133Z 27006KT 00/M01 A2991 RMK A01 T00021005  RH  095%=      5-min Rain = 0
KHA3 131134Z 27006KT 00/M00 A2991 RMK A01 T00021004  RH  095%=      5-min Rain = 0
KHA3 131135Z 27006KT 00/M00 A2991 RMK A01 T00031004  RH  096%=      5-min Rain = 0
KHA3 131136Z 27006KT 00/M00 A2991 RMK A01 T00031003  RH  096%=      5-min Rain = 0
KHA3 131137Z 28005KT 00/M00 A2991 RMK A01 T00031003  RH  096%=      5-min Rain = 0
KHA3 131138Z 28005KT 00/M00 A2991 RMK A01 T00031003  RH  095%=      5-min Rain = 0
KHA3 131139Z 28005KT 00/M00 A2991 RMK A01 T00031003  RH  095%=      5-min Rain = 0
KHA3 131140Z 27005KT 00/M00 A2991 RMK A01 T00031003  RH  096%=      5-min Rain = 0
KHA3 131141Z 28005KT 00/M00 A2991 RMK A01 T00031004  RH  095%=      5-min Rain = 0
KHA3 131142Z 28005KT 00/M00 A2991 RMK A01 T00031004  RH  095%=      5-min Rain = 0
KHA3 131143Z 28005KT 00/M00 A2991 RMK A01 T00031004  RH  095%=      5-min Rain = 0
KHA3 131144Z 28005KT 00/M01 A2991 RMK A01 T00021005  RH  095%=      5-min Rain = 0
KHA3 131145Z 28006KT 00/M01 A2991 RMK A01 T00021005  RH  095%=      5-min Rain = 0
KHA3 131146Z 28006KT 00/M01 A2991 RMK A01 T00021005  RH  095%=      5-min Rain = 0
KHA3 131147Z 28006KT 00/M01 A2991 RMK A01 T00021005  RH  095%=      5-min Rain = 0
KHA3 131148Z 28006KT 00/M01 A2991 RMK A01 T00011006  RH  095%=      5-min Rain = 0
KHA3 131149Z 28006KT 00/M01 A2991 RMK A01 T00011005  RH  095%=      5-min Rain = 0
KHA3 131150Z 28006KT 00/M01 A2991 RMK A01 T00011005  RH  096%=      5-min Rain = 0
KHA3 131151Z 28006KT 00/M00 A2991 RMK A01 T00021004  RH  096%=      5-min Rain = 0
KHA3 131152Z 28006KT 00/M00 A2991 RMK A01 T00021004  RH  096%=      5-min Rain = 0
KHA3 131153Z 28006KT 00/M00 A2991 RMK A01 T00021004  RH  096%=      5-min Rain = 0
KHA3 131154Z 27006KT 00/M00 A2991 RMK A01 T00021004  RH  096%=      5-min Rain = 0
KHA3 131155Z 28006KT 00/M00 A2991 RMK A01 T00021004  RH  096%=      5-min Rain = 0
KHA3 131156Z 28005KT 00/M00 A2991 RMK A01 T00021004  RH  096%=      5-min Rain = 0
KHA3 131157Z 28005KT 00/M00 A2991 RMK A01 T00021004  RH  096%=      5-min Rain = 0
KHA3 131158Z 28005KT 00/M01 A2991 RMK A01 T00021005  RH  095%=      5-min Rain = 0
KHA3 131159Z 28005KT 00/M00 A2991 RMK A01 T00021004  RH  095%=      5-min Rain = 0
KHA3 131200Z 29005KT 00/M01 A2991 RMK A01 T00021005  RH  096%=      5-min Rain = 0
KHA3 131201Z 29005KT 00/M01 A2991 RMK A01 T00021005  RH  096%=      5-min Rain = 0
KHA3 131202Z 29005KT 00/M00 A2991 RMK A01 T00021004  RH  096%=      5-min Rain = 0
KHA3 131203Z 30005KT 00/M00 A2991 RMK A01 T00021004  RH  096%=      5-min Rain = 0
KHA3 131204Z 30005KT 00/M00 A2991 RMK A01 T00021004  RH  096%=      5-min Rain = 0
KHA3 131205Z 30005KT 00/M00 A2991 RMK A01 T00031003  RH  096%=      5-min Rain = 0
KHA3 131206Z 30005KT 00/M00 A2991 RMK A01 T00031003  RH  096%=      5-min Rain = 0
KHA3 131207Z 29005KT 00/M00 A2991 RMK A01 T00031003  RH  096%=      5-min Rain = 0
KHA3 131208Z 29005KT 00/M00 A2991 RMK A01 T00031003  RH  096%=      5-min Rain = 0
KHA3 131209Z 29005KT 00/M00 A2991 RMK A01 T00041003  RH  096%=      5-min Rain = 0
KHA3 131210Z 30005KT 00/M00 A2991 RMK A01 T00041002  RH  096%=      5-min Rain = 0
KHA3 131211Z 30004KT 00/M00 A2991 RMK A01 T00041003  RH  096%=      5-min Rain = 0
KHA3 131212Z 30004KT 00/M00 A299 RMK A01 T00041002  RH  095%=      5-min Rain = 0
KHA3 131213Z 31003KT 00/M00 A299 RMK A01 T00041003  RH  095%=      5-min Rain = 0
KHA3 131214Z 31004KT 00/M00 A299 RMK A01 T00041002  RH  095%=      5-min Rain = 0
KHA3 131215Z 31004KT 01/M00 A299 RMK A01 T00051002  RH  096%=      5-min Rain = 0
KHA3 131216Z 31003KT 01/M00 A299 RMK A01 T00051001  RH  096%=      5-min Rain = 0
KHA3 131217Z 31003KT 01/00 A299 RMK A01 T000600-0  RH  096%=      5-min Rain = 0
KHA3 131218Z 31004KT 01/00 A299 RMK A01 T00060000  RH  096%=      5-min Rain = 0
KHA3 131219Z 31004KT 01/00 A2991 RMK A01 T00060000  RH  096%=      5-min Rain = 0
KHA3 131220Z 31004KT 01/00 A2991 RMK A01 T00070000  RH  096%=      5-min Rain = 0
KHA3 131221Z 31004KT 01/00 A2991 RMK A01 T00070001  RH  096%=      5-min Rain = 0
KHA3 131222Z 30004KT 01/00 A2991 RMK A01 T00080002  RH  096%=      5-min Rain = 0
KHA3 131223Z 30004KT 01/00 A2991 RMK A01 T00080001  RH  095%=      5-min Rain = 0
KHA3 131224Z 30004KT 01/00 A2991 RMK A01 T00080001  RH  095%=      5-min Rain = 0
KHA3 131225Z 30004KT 01/00 A2991 RMK A01 T00080001  RH  095%=      5-min Rain = 0
KHA3 131226Z 30004KT 01/00 A2991 RMK A01 T00080001  RH  095%=      5-min Rain = 0
KHA3 131227Z 29004KT 01/00 A2991 RMK A01 T00080000  RH  095%=      5-min Rain = 0
KHA3 131228Z 29004KT 01/00 A2991 RMK A01 T000700-0  RH  095%=      5-min Rain = 0
KHA3 131229Z 28004KT 01/M00 A2991 RMK A01 T00071001  RH  095%=      5-min Rain = 0
KHA3 131230Z 28004KT 01/M00 A2991 RMK A01 T00061002  RH  094%=      5-min Rain = 0
KHA3 131231Z 28004KT 01/M00 A2991 RMK A01 T00061002  RH  094%=      5-min Rain = 0
KHA3 131232Z 28004KT 01/M00 A2991 RMK A01 T00051003  RH  094%=      5-min Rain = 0
KHA3 131233Z 28004KT 01/M00 A2991 RMK A01 T00051004  RH  094%=      5-min Rain = 0
KHA3 131234Z 29004KT 00/M00 A2991 RMK A01 T00041004  RH  095%=      5-min Rain = 0
KHA3 131235Z 29005KT 00/M00 A2992 RMK A01 T00041004  RH  095%=      5-min Rain = 0
KHA3 131236Z 29005KT 00/M00 A2992 RMK A01 T00041003  RH  095%=      5-min Rain = 0
KHA3 131237Z 29005KT 00/M00 A2992 RMK A01 T00041003  RH  095%=      5-min Rain = 0
KHA3 131238Z 29005KT 00/M00 A2992 RMK A01 T00041003  RH  095%=      5-min Rain = 0
KHA3 131239Z 29005KT 00/M00 A2992 RMK A01 T00041003  RH  095%=      5-min Rain = 0
KHA3 131240Z 28005KT 00/M00 A2992 RMK A01 T00031003  RH  095%=      5-min Rain = 0
KHA3 131241Z 28004KT 00/M00 A2992 RMK A01 T00031004  RH  095%=      5-min Rain = 0
KHA3 131242Z 27004KT 00/M00 A2992 RMK A01 T00031004  RH  095%=      5-min Rain = 0
KHA3 131243Z 27004KT 00/M00 A2992 RMK A01 T00031004  RH  095%=      5-min Rain = 0
KHA3 131244Z 27004KT 00/M00 A2992 RMK A01 T00031004  RH  095%=      5-min Rain = 0
KHA3 131245Z 28004KT 00/M00 A2992 RMK A01 T00031004  RH  096%=      5-min Rain = 0
KHA3 131246Z 28004KT 00/M00 A2992 RMK A01 T00021004  RH  095%=      5-min Rain = 0
KHA3 131247Z 28004KT 00/M01 A2992 RMK A01 T00021005  RH  095%=      5-min Rain = 0
KHA3 131248Z 29004KT 00/01 A2992 RMK A01 T000000-6  RH  095%=      5-min Rain = 0
KHA3 131249Z 28004KT 00/01 A2992 RMK A01 T00-000-7  RH  095%=      5-min Rain = 0
KHA3 131250Z 28004KT 00/01 A2992 RMK A01 T000000-6  RH  096%=      5-min Rain = 0
KHA3 131251Z 28004KT 00/01 A2992 RMK A01 T000000-6  RH  096%=      5-min Rain = 0
KHA3 131252Z 28004KT 00/01 A2992 RMK A01 T000000-5  RH  096%=      5-min Rain = 0
KHA3 131253Z 28004KT 00/01 A2992 RMK A01 T000000-5  RH  096%=      5-min Rain = 0
KHA3 131254Z 28004KT 00/M01 A2992 RMK A01 T00011005  RH  096%=      5-min Rain = 0
KHA3 131255Z 28004KT 00/M00 A2992 RMK A01 T00011004  RH  096%=      5-min Rain = 0
KHA3 131256Z 28004KT 00/M00 A2992 RMK A01 T00011004  RH  096%=      5-min Rain = 0
KHA3 131257Z 29004KT 00/M00 A2993 RMK A01 T00011004  RH  096%=      5-min Rain = 0
KHA3 131258Z 29005KT 00/M00 A2993 RMK A01 T00021003  RH  097%=      5-min Rain = 0
KHA3 131259Z 28005KT 00/M00 A2993 RMK A01 T00031001  RH  097%=      5-min Rain = 0
KHA3 131300Z 28005KT 00/00 A2993 RMK A01 T000400-0  RH  097%=      5-min Rain = 0
KHA3 131301Z 28005KT 00/M00 A2993 RMK A01 T00041001  RH  097%=      5-min Rain = 0
KHA3 131302Z 28005KT 00/M00 A2993 RMK A01 T00041001  RH  096%=      5-min Rain = 0
KHA3 131303Z 28004KT 00/M00 A2993 RMK A01 T00041002  RH  096%=      5-min Rain = 0
KHA3 131304Z 28004KT 00/M00 A2993 RMK A01 T00041002  RH  096%=      5-min Rain = 0
KHA3 131305Z 27004KT 00/M00 A2993 RMK A01 T00041002  RH  096%=      5-min Rain = 0
KHA3 131306Z 27005KT 00/M00 A2993 RMK A01 T00041002  RH  096%=      5-min Rain = 0
KHA3 131307Z 27005KT 00/M00 A2993 RMK A01 T00031002  RH  096%=      5-min Rain = 0
KHA3 131308Z 27005KT 00/M00 A2993 RMK A01 T00031002  RH  096%=      5-min Rain = 0
KHA3 131309Z 27005KT 00/M00 A2993 RMK A01 T00031002  RH  096%=      5-min Rain = 0
KHA3 131310Z 27005KT 00/M00 A2993 RMK A01 T00031002  RH  096%=      5-min Rain = 0
KHA3 131311Z 27004KT 00/M00 A2992 RMK A01 T00031003  RH  096%=      5-min Rain = 0
KHA3 131312Z 27004KT 00/M00 A2992 RMK A01 T00031003  RH  096%=      5-min Rain = 0
KHA3 131313Z 27004KT 00/M00 A2992 RMK A01 T00021003  RH  096%=      5-min Rain = 0
KHA3 131314Z 27004KT 00/M00 A2992 RMK A01 T00021003  RH  096%=      5-min Rain = 0
KHA3 131315Z 27004KT 00/M00 A2992 RMK A01 T00021003  RH  096%=      5-min Rain = 0
KHA3 131316Z 27004KT 00/M00 A2992 RMK A01 T00021003  RH  096%=      5-min Rain = 0
KHA3 131317Z 27004KT 00/M00 A2992 RMK A01 T00021004  RH  096%=      5-min Rain = 0
KHA3 131318Z 27004KT 00/M00 A2992 RMK A01 T00021004  RH  096%=      5-min Rain = 0
KHA3 131319Z 27004KT 00/M00 A2992 RMK A01 T00011004  RH  096%=      5-min Rain = 0
KHA3 131320Z 27004KT 00/M00 A2992 RMK A01 T00011004  RH  096%=      5-min Rain = 0
KHA3 131321Z 27004KT 00/M00 A2992 RMK A01 T00011004  RH  096%=      5-min Rain = 0
KHA3 131322Z 26005KT 00/M00 A2992 RMK A01 T00021004  RH  096%=      5-min Rain = 0
KHA3 131323Z 26005KT 00/M00 A2992 RMK A01 T00021003  RH  096%=      5-min Rain = 0
KHA3 131324Z 26005KT 00/M00 A2992 RMK A01 T00021003  RH  096%=      5-min Rain = 0
KHA3 131325Z 25005KT 00/M00 A2992 RMK A01 T00031003  RH  096%=      5-min Rain = 0
KHA3 131326Z 25004KT 00/M01 A2991 RMK A01 T00011005  RH  096%=      5-min Rain = 0
KHA3 131327Z 25004KT 00/01 A2991 RMK A01 T00-000-7  RH  095%=      5-min Rain = 0
KHA3 131328Z 25004KT M00/M01 A2991 RMK A01 T10011008  RH  095%=      5-min Rain = 0
KHA3 131329Z 25004KT M00/M01 A2991 RMK A01 T10021009  RH  095%=      5-min Rain = 0
KHA3 131330Z 24003KT M00/M01 A2991 RMK A01 T10021009  RH  096%=      5-min Rain = 0
KHA3 131331Z 24003KT M00/M01 A2991 RMK A01 T10021008  RH  096%=      5-min Rain = 0
KHA3 131332Z 24003KT M00/M01 A2991 RMK A01 T10021008  RH  096%=      5-min Rain = 0
KHA3 131333Z 24003KT M00/M01 A2991 RMK A01 T10021008  RH  096%=      5-min Rain = 0
KHA3 131334Z 23003KT M00/M01 A2991 RMK A01 T10031008  RH  096%=      5-min Rain = 0
KHA3 131335Z 23004KT M00/M01 A2991 RMK A01 T10021007  RH  096%=      5-min Rain = 0
KHA3 131336Z 23004KT M00/M01 A2991 RMK A01 T10021007  RH  097%=      5-min Rain = 0
KHA3 131337Z 23004KT M00/M01 A2991 RMK A01 T10021007  RH  096%=      5-min Rain = 0
KHA3 131338Z 23004KT M00/M01 A2991 RMK A01 T10021008  RH  096%=      5-min Rain = 0
KHA3 131339Z 23004KT M00/M01 A2991 RMK A01 T10031009  RH  096%=      5-min Rain = 0
KHA3 131340Z 23004KT M00/M01 A2991 RMK A01 T10041010  RH  096%=      5-min Rain = 0
KHA3 131341Z 23004KT M01/M01 A2991 RMK A01 T10051011  RH  096%=      5-min Rain = 0
KHA3 131342Z 24004KT M01/M01 A2991 RMK A01 T10051010  RH  096%=      5-min Rain = 0
KHA3 131343Z 24004KT M01/M01 A2991 RMK A01 T10051010  RH  096%=      5-min Rain = 0
KHA3 131344Z 25004KT M01/M01 A2991 RMK A01 T10051010  RH  096%=      5-min Rain = 0
KHA3 131345Z 25003KT M00/M01 A2991 RMK A01 T10041010  RH  096%=      5-min Rain = 0
KHA3 131346Z 25003KT M00/M01 A2992 RMK A01 T10031008  RH  096%=      5-min Rain = 0
KHA3 131347Z 26003KT M00/M01 A2992 RMK A01 T10021007  RH  097%=      5-min Rain = 0
KHA3 131348Z 26003KT M00/M01 A2992 RMK A01 T10021007  RH  097%=      5-min Rain = 0
KHA3 131349Z 26003KT M00/M01 A2992 RMK A01 T10011006  RH  096%=      5-min Rain = 0
KHA3 131350Z 26003KT 00/M00 A2991 RMK A01 T00011004  RH  097%=      5-min Rain = 0
KHA3 131351Z 26003KT 00/M00 A2991 RMK A01 T00021002  RH  097%=      5-min Rain = 0
KHA3 131352Z 26003KT 00/M00 A2991 RMK A01 T00041001  RH  096%=      5-min Rain = 0
KHA3 131353Z 27003KT 01/M00 A2991 RMK A01 T00051001  RH  096%=      5-min Rain = 0
KHA3 131354Z 27003KT 01/M00 A2991 RMK A01 T00051002  RH  095%=      5-min Rain = 0
KHA3 131355Z 27003KT 01/M00 A2991 RMK A01 T00051003  RH  094%=      5-min Rain = 0
KHA3 131356Z 27002KT 01/M00 A2991 RMK A01 T00061003  RH  094%=      5-min Rain = 0
KHA3 131357Z 28002KT 01/M00 A2991 RMK A01 T00051003  RH  094%=      5-min Rain = 0
KHA3 131358Z 27003KT 01/M00 A2991 RMK A01 T00061002  RH  094%=      5-min Rain = 0
KHA3 131359Z 26003KT 01/M00 A2991 RMK A01 T00071002  RH  094%=      5-min Rain = 0
KHA3 131400Z 26003KT 01/M00 A2991 RMK A01 T00071003  RH  093%=      5-min Rain = 0
KHA3 131401Z 25003KT 01/M00 A2991 RMK A01 T00071004  RH  093%=      5-min Rain = 0
KHA3 131402Z 25003KT 01/M00 A2991 RMK A01 T00061004  RH  093%=      5-min Rain = 0
KHA3 131403Z 25003KT 01/M01 A2991 RMK A01 T00061005  RH  093%=      5-min Rain = 0
KHA3 131404Z 25003KT 01/M00 A2991 RMK A01 T00061004  RH  093%=      5-min Rain = 0
KHA3 131405Z 25003KT 01/M00 A2991 RMK A01 T00061003  RH  093%=      5-min Rain = 0
KHA3 131406Z 25003KT 01/M00 A2991 RMK A01 T00071002  RH  094%=      5-min Rain = 0
KHA3 131407Z 25003KT 01/M00 A2991 RMK A01 T00081001  RH  093%=      5-min Rain = 0
KHA3 131408Z 25004KT 01/M00 A2991 RMK A01 T00081001  RH  093%=      5-min Rain = 0
KHA3 131409Z 25004KT 01/M00 A2991 RMK A01 T00091001  RH  093%=      5-min Rain = 0
KHA3 131410Z 24004KT 01/M00 A2991 RMK A01 T00091001  RH  093%=      5-min Rain = 0
KHA3 131411Z 24005KT 01/M00 A2991 RMK A01 T00091001  RH  093%=      5-min Rain = 0
KHA3 131412Z 24005KT 01/M00 A2991 RMK A01 T00091002  RH  092%=      5-min Rain = 0
KHA3 131413Z 24005KT 01/M00 A2991 RMK A01 T00091002  RH  092%=      5-min Rain = 0
KHA3 131414Z 25005KT 01/M00 A2991 RMK A01 T00091002  RH  092%=      5-min Rain = 0
KHA3 131415Z 25005KT 01/M00 A2991 RMK A01 T00081003  RH  092%=      5-min Rain = 0
KHA3 131416Z 26005KT 01/M00 A2992 RMK A01 T00081003  RH  092%=      5-min Rain = 0
KHA3 131417Z 26005KT 01/M00 A2991 RMK A01 T00081002  RH  093%=      5-min Rain = 0
KHA3 131418Z 26005KT 01/M00 A2991 RMK A01 T00091001  RH  093%=      5-min Rain = 0
KHA3 131419Z 26005KT 01/00 A2991 RMK A01 T00100000  RH  093%=      5-min Rain = 0
KHA3 131420Z 27005KT 01/00 A2991 RMK A01 T00120002  RH  093%=      5-min Rain = 0
KHA3 131421Z 27004KT 01/00 A2991 RMK A01 T00130003  RH  093%=      5-min Rain = 0
KHA3 131422Z 27004KT 02/00 A2992 RMK A01 T00150004  RH  093%=      5-min Rain = 0
KHA3 131423Z 27004KT 02/00 A2992 RMK A01 T00160004  RH  092%=      5-min Rain = 0
KHA3 131424Z 28004KT 02/00 A2992 RMK A01 T00170004  RH  091%=      5-min Rain = 0
KHA3 131425Z 27005KT 02/01 A2992 RMK A01 T00180005  RH  091%=      5-min Rain = 0
KHA3 131426Z 27005KT 02/01 A2992 RMK A01 T00190006  RH  091%=      5-min Rain = 0
KHA3 131427Z 27005KT 02/01 A2992 RMK A01 T00200006  RH  090%=      5-min Rain = 0
KHA3 131428Z 27005KT 02/01 A2992 RMK A01 T00210007  RH  090%=      5-min Rain = 0
KHA3 131429Z 27005KT 02/01 A2992 RMK A01 T00220007  RH  090%=      5-min Rain = 0
KHA3 131430Z 26005KT 02/01 A2992 RMK A01 T00230007  RH  089%=      5-min Rain = 0
KHA3 131431Z 26005KT 02/01 A2992 RMK A01 T00240008  RH  089%=      5-min Rain = 0
KHA3 131432Z 26005KT 03/01 A2992 RMK A01 T00250009  RH  089%=      5-min Rain = 0
KHA3 131433Z 26005KT 03/01 A2992 RMK A01 T00250009  RH  089%=      5-min Rain = 0
KHA3 131434Z 25005KT 03/01 A2992 RMK A01 T00260010  RH  089%=      5-min Rain = 0
KHA3 131435Z 25004KT 03/01 A2992 RMK A01 T00270011  RH  089%=      5-min Rain = 0
KHA3 131436Z 26004KT 03/01 A2992 RMK A01 T00280012  RH  089%=      5-min Rain = 0
KHA3 131437Z 26004KT 03/01 A2992 RMK A01 T00300012  RH  089%=      5-min Rain = 0
KHA3 131438Z 26004KT 03/01 A2992 RMK A01 T00310014  RH  089%=      5-min Rain = 0
KHA3 131439Z 26004KT 03/02 A2992 RMK A01 T00310015  RH  089%=      5-min Rain = 0
KHA3 131440Z 26004KT 03/02 A2992 RMK A01 T00320016  RH  089%=      5-min Rain = 0
KHA3 131441Z 26004KT 03/02 A2992 RMK A01 T00330016  RH  089%=      5-min Rain = 0
KHA3 131442Z 26004KT 03/02 A2992 RMK A01 T00340016  RH  088%=      5-min Rain = 0
KHA3 131443Z 26003KT 04/02 A2992 RMK A01 T00350016  RH  088%=      5-min Rain = 0
KHA3 131444Z 26003KT 04/02 A2992 RMK A01 T00360016  RH  087%=      5-min Rain = 0
KHA3 131445Z 26003KT 04/02 A2992 RMK A01 T00360016  RH  086%=      5-min Rain = 0
KHA3 131446Z 26003KT 04/02 A2992 RMK A01 T00370017  RH  087%=      5-min Rain = 0
KHA3 131447Z 26004KT 04/02 A2992 RMK A01 T00380016  RH  086%=      5-min Rain = 0
KHA3 131448Z 25004KT 04/01 A2992 RMK A01 T00390014  RH  084%=      5-min Rain = 0
KHA3 131449Z 25003KT 04/02 A2992 RMK A01 T00390015  RH  084%=      5-min Rain = 0
KHA3 131450Z 26004KT 04/02 A2992 RMK A01 T00400017  RH  085%=      5-min Rain = 0
KHA3 131451Z 25004KT 04/02 A2992 RMK A01 T00410020  RH  086%=      5-min Rain = 0
KHA3 131452Z 25003KT 04/02 A2992 RMK A01 T00410019  RH  085%=      5-min Rain = 0
KHA3 131453Z 25003KT 04/02 A2993 RMK A01 T00410018  RH  085%=      5-min Rain = 0
KHA3 131454Z 26003KT 04/02 A2993 RMK A01 T00410017  RH  085%=      5-min Rain = 0
KHA3 131455Z 26004KT 04/02 A2993 RMK A01 T00410018  RH  085%=      5-min Rain = 0
KHA3 131456Z 26004KT 04/02 A2993 RMK A01 T00410019  RH  085%=      5-min Rain = 0
KHA3 131457Z 26004KT 04/02 A2993 RMK A01 T00420020  RH  085%=      5-min Rain = 0
KHA3 131458Z 26005KT 04/02 A2993 RMK A01 T00420019  RH  085%=      5-min Rain = 0
KHA3 131459Z 26005KT 04/02 A2993 RMK A01 T00430018  RH  084%=      5-min Rain = 0
KHA3 131500Z 26005KT 04/02 A2993 RMK A01 T00430017  RH  083%=      5-min Rain = 0
KHA3 131501Z 26005KT 04/02 A2993 RMK A01 T00440018  RH  083%=      5-min Rain = 0
KHA3 131502Z 26005KT 04/02 A2993 RMK A01 T00440017  RH  083%=      5-min Rain = 0
KHA3 131503Z 26005KT 05/02 A2993 RMK A01 T00450019  RH  083%=      5-min Rain = 0
KHA3 131504Z 26006KT 05/02 A2993 RMK A01 T00460020  RH  084%=      5-min Rain = 0
KHA3 131505Z 26006KT 05/02 A2993 RMK A01 T00460020  RH  083%=      5-min Rain = 0
KHA3 131506Z 26006KT 05/02 A2993 RMK A01 T00470020  RH  082%=      5-min Rain = 0
KHA3 131507Z 26006KT 05/02 A2993 RMK A01 T00470019  RH  082%=      5-min Rain = 0
KHA3 131508Z 26006KT 05/02 A2993 RMK A01 T00480020  RH  082%=      5-min Rain = 0
KHA3 131509Z 26005KT 05/02 A2993 RMK A01 T00480020  RH  082%=      5-min Rain = 0
KHA3 131510Z 26006KT 05/02 A2993 RMK A01 T00490024  RH  083%=      5-min Rain = 0
KHA3 131511Z 26005KT 05/02 A2993 RMK A01 T00500023  RH  083%=      5-min Rain = 0
KHA3 131512Z 26005KT 05/03 A2993 RMK A01 T00520026  RH  083%=      5-min Rain = 0
KHA3 131513Z 26005KT 05/02 A2993 RMK A01 T00520023  RH  081%=      5-min Rain = 0
KHA3 131514Z 26005KT 05/02 A2993 RMK A01 T00520023  RH  081%=      5-min Rain = 0
KHA3 131515Z 26006KT 05/02 A2993 RMK A01 T00530022  RH  080%=      5-min Rain = 0
KHA3 131516Z 26006KT 05/02 A2993 RMK A01 T00530019  RH  079%=      5-min Rain = 0
KHA3 131517Z 26007KT 05/02 A2993 RMK A01 T00530020  RH  079%=      5-min Rain = 0
KHA3 131518Z 27007KT 05/02 A2993 RMK A01 T00540018  RH  078%=      5-min Rain = 0
KHA3 131519Z 27005KT 06/02 A2993 RMK A01 T00550020  RH  078%=      5-min Rain = 0
KHA3 131520Z 27005KT 06/03 A2993 RMK A01 T00560026  RH  081%=      5-min Rain = 0
KHA3 131521Z 27006KT 06/02 A2993 RMK A01 T00570024  RH  079%=      5-min Rain = 0
KHA3 131522Z 27006KT 06/02 A2993 RMK A01 T00570020  RH  077%=      5-min Rain = 0
KHA3 131523Z 27005KT 06/02 A2993 RMK A01 T00570020  RH  077%=      5-min Rain = 0
KHA3 131524Z 27005KT 06/02 A2993 RMK A01 T00570021  RH  077%=      5-min Rain = 0
KHA3 131525Z 26005KT 06/02 A2993 RMK A01 T00580024  RH  079%=      5-min Rain = 0
KHA3 131526Z 27005KT 06/02 A2993 RMK A01 T00590024  RH  078%=      5-min Rain = 0
KHA3 131527Z 27005KT 06/03 A2993 RMK A01 T00600026  RH  079%=      5-min Rain = 0
KHA3 131528Z 27006KT 06/02 A2993 RMK A01 T00610022  RH  076%=      5-min Rain = 0
KHA3 131529Z 27006KT 06/02 A2993 RMK A01 T00610019  RH  074%=      5-min Rain = 0
KHA3 131530Z 27005KT 06/02 A2994 RMK A01 T00610019  RH  074%=      5-min Rain = 0
KHA3 131531Z 26005KT 06/02 A2994 RMK A01 T00620022  RH  076%=      5-min Rain = 0
KHA3 131532Z 26005KT 06/02 A2994 RMK A01 T00630019  RH  074%=      5-min Rain = 0
KHA3 131533Z 26005KT 06/02 A2994 RMK A01 T00630019  RH  074%=      5-min Rain = 0
KHA3 131534Z 26006KT 06/02 A2994 RMK A01 T00640019  RH  073%=      5-min Rain = 0
KHA3 131535Z 26006KT 06/02 A2994 RMK A01 T00640016  RH  071%=      5-min Rain = 0
KHA3 131536Z 27005KT 06/02 A2994 RMK A01 T00630016  RH  072%=      5-min Rain = 0
KHA3 131537Z 27005KT 06/02 A2994 RMK A01 T00640022  RH  074%=      5-min Rain = 0
KHA3 131538Z 27005KT 07/02 A2994 RMK A01 T00660023  RH  074%=      5-min Rain = 0
KHA3 131539Z 27006KT 07/02 A2994 RMK A01 T00670021  RH  072%=      5-min Rain = 0
KHA3 131540Z 26005KT 07/02 A2994 RMK A01 T00670020  RH  072%=      5-min Rain = 0
KHA3 131541Z 25005KT 07/02 A2994 RMK A01 T00680024  RH  073%=      5-min Rain = 0
KHA3 131542Z 26005KT 07/03 A2994 RMK A01 T00700025  RH  073%=      5-min Rain = 0
KHA3 131543Z 27005KT 07/02 A2994 RMK A01 T00700021  RH  071%=      5-min Rain = 0
KHA3 131544Z 26005KT 07/02 A2994 RMK A01 T00700019  RH  070%=      5-min Rain = 0
KHA3 131545Z 26005KT 07/02 A2994 RMK A01 T00710020  RH  070%=      5-min Rain = 0
KHA3 131546Z 27005KT 07/02 A2994 RMK A01 T00710020  RH  070%=      5-min Rain = 0
KHA3 131547Z 27004KT 07/02 A2994 RMK A01 T00720022  RH  071%=      5-min Rain = 0
KHA3 131548Z 26004KT 07/02 A2994 RMK A01 T00730020  RH  069%=      5-min Rain = 0
KHA3 131549Z 28003KT 07/02 A2994 RMK A01 T00740023  RH  070%=      5-min Rain = 0
KHA3 131550Z 28004KT 08/02 A2994 RMK A01 T00750023  RH  070%=      5-min Rain = 0
KHA3 131551Z 27004KT 08/03 A2994 RMK A01 T00770026  RH  070%=      5-min Rain = 0
KHA3 131552Z 27004KT 08/03 A2994 RMK A01 T00790026  RH  069%=      5-min Rain = 0
KHA3 131553Z 26004KT 08/03 A2994 RMK A01 T00790026  RH  069%=      5-min Rain = 0
KHA3 131554Z 28004KT 08/02 A2994 RMK A01 T00800024  RH  068%=      5-min Rain = 0
KHA3 131555Z 28003KT 08/02 A2994 RMK A01 T00800022  RH  067%=      5-min Rain = 0
KHA3 131556Z 28004KT 08/03 A2994 RMK A01 T00810026  RH  068%=      5-min Rain = 0
KHA3 131557Z 27004KT 08/03 A2994 RMK A01 T00820026  RH  068%=      5-min Rain = 0
KHA3 131558Z 28003KT 08/02 A2994 RMK A01 T00830024  RH  066%=      5-min Rain = 0
KHA3 131559Z 27002KT 08/03 A2994 RMK A01 T00830026  RH  067%=      5-min Rain = 0
KHA3 131600Z 26002KT 08/03 A2994 RMK A01 T00840028  RH  068%=      5-min Rain = 0
KHA3 131601Z 26002KT 09/03 A2994 RMK A01 T00860026  RH  066%=      5-min Rain = 0
KHA3 131602Z 25002KT 09/03 A2994 RMK A01 T00860026  RH  066%=      5-min Rain = 0
KHA3 131603Z 25003KT 09/03 A2993 RMK A01 T00870026  RH  066%=      5-min Rain = 0
KHA3 131604Z 23002KT 09/02 A2993 RMK A01 T00880024  RH  064%=      5-min Rain = 0
KHA3 131605Z 23002KT 09/02 A2993 RMK A01 T00880021  RH  063%=      5-min Rain = 0
KHA3 131606Z 25002KT 09/03 A2993 RMK A01 T00890025  RH  064%=      5-min Rain = 0
KHA3 131607Z 26003KT 09/03 A2993 RMK A01 T00910028  RH  065%=      5-min Rain = 0
KHA3 131608Z 25002KT 09/02 A2993 RMK A01 T00920024  RH  062%=      5-min Rain = 0
KHA3 131609Z 26002KT 09/02 A2993 RMK A01 T00920021  RH  061%=      5-min Rain = 0
KHA3 131610Z 27003KT 09/02 A2993 RMK A01 T00930024  RH  062%=      5-min Rain = 0
KHA3 131611Z 26004KT 09/02 A2993 RMK A01 T00940022  RH  061%=      5-min Rain = 0
KHA3 131612Z 25003KT 10/02 A2993 RMK A01 T00950022  RH  060%=      5-min Rain = 0
KHA3 131613Z 26003KT 10/03 A2993 RMK A01 T00970027  RH  062%=      5-min Rain = 0
KHA3 131614Z 26004KT 10/02 A2993 RMK A01 T00980024  RH  060%=      5-min Rain = 0
KHA3 131615Z 25003KT 10/02 A2993 RMK A01 T00980023  RH  060%=      5-min Rain = 0
KHA3 131616Z 26003KT 10/02 A2993 RMK A01 T00980024  RH  060%=      5-min Rain = 0
KHA3 131617Z 26003KT 10/03 A2993 RMK A01 T00980025  RH  060%=      5-min Rain = 0
KHA3 131618Z 27003KT 10/02 A2993 RMK A01 T00980024  RH  060%=      5-min Rain = 0
KHA3 131619Z 26003KT 10/03 A2993 RMK A01 T00980025  RH  060%=      5-min Rain = 0
KHA3 131620Z 26003KT 10/02 A2993 RMK A01 T01000024  RH  059%=      5-min Rain = 0
KHA3 131621Z 25003KT 10/02 A2993 RMK A01 T01010023  RH  058%=      5-min Rain = 0
KHA3 131622Z 27003KT 10/03 A2993 RMK A01 T01020026  RH  059%=      5-min Rain = 0
KHA3 131623Z 28002KT 10/03 A2993 RMK A01 T01040025  RH  058%=      5-min Rain = 0
KHA3 131624Z 27003KT 11/03 A2993 RMK A01 T01060026  RH  058%=      5-min Rain = 0
KHA3 131625Z 27003KT 11/02 A2993 RMK A01 T01060024  RH  057%=      5-min Rain = 0
KHA3 131626Z 26003KT 11/03 A2993 RMK A01 T01070026  RH  058%=      5-min Rain = 0
KHA3 131627Z 26002KT 11/03 A2993 RMK A01 T01080026  RH  057%=      5-min Rain = 0
KHA3 131628Z 26003KT 11/03 A2993 RMK A01 T01090028  RH  057%=      5-min Rain = 0
KHA3 131629Z 27003KT 11/03 A2993 RMK A01 T01110029  RH  057%=      5-min Rain = 0
KHA3 131630Z 26005KT 11/03 A2993 RMK A01 T01130028  RH  056%=      5-min Rain = 0
KHA3 131631Z 27004KT 11/03 A2993 RMK A01 T01130025  RH  055%=      5-min Rain = 0
KHA3 131632Z 28004KT 11/03 A2993 RMK A01 T01130027  RH  055%=      5-min Rain = 0
KHA3 131633Z 27004KT 11/03 A2993 RMK A01 T01140027  RH  055%=      5-min Rain = 0
KHA3 131634Z 27004KT 12/03 A2993 RMK A01 T01150027  RH  055%=      5-min Rain = 0
KHA3 131635Z 27003KT 12/03 A2993 RMK A01 T01160025  RH  054%=      5-min Rain = 0
KHA3 131636Z 29003KT 12/02 A2993 RMK A01 T01160024  RH  053%=      5-min Rain = 0
KHA3 131637Z 27004KT 12/03 A2993 RMK A01 T01170027  RH  054%=      5-min Rain = 0
KHA3 131638Z 26004KT 12/03 A2993 RMK A01 T01180025  RH  053%=      5-min Rain = 0
KHA3 131639Z 27003KT 12/03 A2993 RMK A01 T01180028  RH  054%=      5-min Rain = 0
KHA3 131640Z 29003KT 12/03 A2992 RMK A01 T01190028  RH  054%=      5-min Rain = 0
KHA3 131641Z 28003KT 12/03 A2992 RMK A01 T01200026  RH  053%=      5-min Rain = 0
KHA3 131642Z 25004KT 12/03 A2992 RMK A01 T01190027  RH  053%=      5-min Rain = 0
KHA3 131643Z 26004KT 12/03 A2993 RMK A01 T01200028  RH  053%=      5-min Rain = 0
KHA3 131644Z 29005KT 12/03 A2993 RMK A01 T01210028  RH  053%=      5-min Rain = 0
KHA3 131645Z 30005KT 12/03 A2993 RMK A01 T01230027  RH  052%=      5-min Rain = 0
KHA3 131646Z 30005KT 12/03 A2992 RMK A01 T01230027  RH  052%=      5-min Rain = 0
KHA3 131647Z 28003KT 12/03 A2992 RMK A01 T01230026  RH  052%=      5-min Rain = 0
KHA3 131648Z 27005KT 12/03 A2992 RMK A01 T01230027  RH  052%=      5-min Rain = 0
KHA3 131649Z 27004KT 12/03 A2992 RMK A01 T01230025  RH  051%=      5-min Rain = 0
KHA3 131650Z 28004KT 12/03 A2992 RMK A01 T01230026  RH  051%=      5-min Rain = 0
KHA3 131651Z 28003KT 12/03 A2992 RMK A01 T01230026  RH  052%=      5-min Rain = 0
KHA3 131652Z 30003KT 12/03 A2992 RMK A01 T01230027  RH  052%=      5-min Rain = 0
KHA3 131653Z 29003KT 12/03 A2992 RMK A01 T01240026  RH  051%=      5-min Rain = 0
KHA3 131654Z 27004KT 12/03 A2992 RMK A01 T01240029  RH  052%=      5-min Rain = 0
KHA3 131655Z 27004KT 13/03 A2992 RMK A01 T01250026  RH  051%=      5-min Rain = 0
KHA3 131656Z 27003KT 13/03 A2992 RMK A01 T01260027  RH  051%=      5-min Rain = 0
KHA3 131657Z 25003KT 13/03 A2991 RMK A01 T01260028  RH  051%=      5-min Rain = 0
KHA3 131658Z 26003KT 13/03 A2991 RMK A01 T01270027  RH  051%=      5-min Rain = 0
KHA3 131659Z 24001KT 13/03 A2991 RMK A01 T01270027  RH  051%=      5-min Rain = 0
KHA3 131700Z 22002KT 13/03 A2991 RMK A01 T01280028  RH  051%=      5-min Rain = 0
KHA3 131701Z 27003KT 13/03 A2991 RMK A01 T01310029  RH  050%=      5-min Rain = 0
KHA3 131702Z 27002KT 13/03 A2991 RMK A01 T01310029  RH  050%=      5-min Rain = 0
KHA3 131703Z 24001KT 13/03 A2991 RMK A01 T01320028  RH  049%=      5-min Rain = 0
KHA3 131704Z 31001KT 13/03 A2991 RMK A01 T01330028  RH  049%=      5-min Rain = 0
KHA3 131705Z 31001KT 13/03 A2991 RMK A01 T01340029  RH  049%=      5-min Rain = 0
KHA3 131706Z 30001KT 14/03 A2991 RMK A01 T01350027  RH  048%=      5-min Rain = 0
KHA3 131707Z 25002KT 13/03 A2991 RMK A01 T01340028  RH  049%=      5-min Rain = 0
KHA3 131708Z 23002KT 13/03 A299 RMK A01 T01340028  RH  049%=      5-min Rain = 0
KHA3 131709Z 21000KT 13/03 A299 RMK A01 T01340029  RH  049%=      5-min Rain = 0
KHA3 131710Z 18000KT 14/03 A299 RMK A01 T01360030  RH  049%=      5-min Rain = 0
KHA3 131711Z 24001KT 14/03 A299 RMK A01 T01390031  RH  048%=      5-min Rain = 0
KHA3 131712Z 25002KT 14/03 A299 RMK A01 T01400029  RH  047%=      5-min Rain = 0
KHA3 131713Z 26001KT 14/03 A299 RMK A01 T01400028  RH  047%=      5-min Rain = 0
KHA3 131714Z 23001KT 14/03 A299 RMK A01 T01390030  RH  048%=      5-min Rain = 0
KHA3 131715Z 24001KT 14/03 A299 RMK A01 T01390028  RH  047%=      5-min Rain = 0
KHA3 131716Z 24000KT 14/03 A299 RMK A01 T01400030  RH  047%=      5-min Rain = 0
KHA3 131717Z 27001KT 14/03 A299 RMK A01 T01420031  RH  047%=      5-min Rain = 0
KHA3 131718Z 26002KT 14/03 A2989 RMK A01 T01420032  RH  047%=      5-min Rain = 0
KHA3 131719Z 25002KT 14/03 A2989 RMK A01 T01430032  RH  047%=      5-min Rain = 0
KHA3 131720Z 26002KT 14/03 A2989 RMK A01 T01440032  RH  047%=      5-min Rain = 0
KHA3 131721Z 24002KT 15/03 A2989 RMK A01 T01450034  RH  047%=      5-min Rain = 0
KHA3 131722Z 21002KT 15/03 A2989 RMK A01 T01460031  RH  046%=      5-min Rain = 0
KHA3 131723Z 19001KT 15/03 A2989 RMK A01 T01460032  RH  046%=      5-min Rain = 0
KHA3 131724Z 23001KT 15/03 A2989 RMK A01 T01470033  RH  046%=      5-min Rain = 0
KHA3 131725Z 24003KT 15/03 A2989 RMK A01 T01490034  RH  046%=      5-min Rain = 0
KHA3 131726Z 23004KT 15/03 A2989 RMK A01 T01500032  RH  045%=      5-min Rain = 0
KHA3 131727Z 23004KT 15/03 A2989 RMK A01 T01490034  RH  046%=      5-min Rain = 0
KHA3 131728Z 23003KT 15/03 A2989 RMK A01 T01510033  RH  045%=      5-min Rain = 0
KHA3 131729Z 20003KT 15/03 A2989 RMK A01 T01520032  RH  045%=      5-min Rain = 0
KHA3 131730Z 22004KT 15/03 A2989 RMK A01 T01530033  RH  044%=      5-min Rain = 0
KHA3 131731Z 22002KT 16/03 A2989 RMK A01 T01550032  RH  044%=      5-min Rain = 0
KHA3 131732Z 23002KT 16/03 A2989 RMK A01 T01560032  RH  043%=      5-min Rain = 0
KHA3 131733Z 25004KT 16/03 A2989 RMK A01 T01560034  RH  044%=      5-min Rain = 0
KHA3 131734Z 22005KT 16/03 A2989 RMK A01 T01560032  RH  044%=      5-min Rain = 0
KHA3 131735Z 22003KT 16/03 A2989 RMK A01 T01550030  RH  043%=      5-min Rain = 0
KHA3 131736Z 24003KT 16/03 A2989 RMK A01 T01550031  RH  043%=      5-min Rain = 0
KHA3 131737Z 23002KT 16/03 A2989 RMK A01 T01560030  RH  043%=      5-min Rain = 0
KHA3 131738Z 23003KT 16/03 A2988 RMK A01 T01580032  RH  043%=      5-min Rain = 0
KHA3 131739Z 24003KT 16/03 A2988 RMK A01 T01580031  RH  043%=      5-min Rain = 0
KHA3 131740Z 24004KT 16/03 A2989 RMK A01 T01580031  RH  042%=      5-min Rain = 0
KHA3 131741Z 25004KT 16/03 A2989 RMK A01 T01570031  RH  043%=      5-min Rain = 0
KHA3 131742Z 24005KT 16/03 A2989 RMK A01 T01570027  RH  042%=      5-min Rain = 0
KHA3 131743Z 23006KT 16/02 A2988 RMK A01 T01570023  RH  040%=      5-min Rain = 0
KHA3 131744Z 20005KT 16/02 A2988 RMK A01 T01570022  RH  040%=      5-min Rain = 0
KHA3 131745Z 21005KT 16/02 A2988 RMK A01 T01580022  RH  040%=      5-min Rain = 0
KHA3 131746Z 22006KT 16/02 A2988 RMK A01 T01600023  RH  040%=      5-min Rain = 0
KHA3 131747Z 21006KT 16/02 A2988 RMK A01 T01620022  RH  039%=      5-min Rain = 0
KHA3 131748Z 19005KT 16/02 A2988 RMK A01 T01640022  RH  039%=      5-min Rain = 0
KHA3 131749Z 18004KT 17/02 A2988 RMK A01 T01650022  RH  038%=      5-min Rain = 0
KHA3 131750Z 18003KT 17/02 A2988 RMK A01 T01650022  RH  038%=      5-min Rain = 0
KHA3 131751Z 22005KT 17/02 A2987 RMK A01 T01660021  RH  038%=      5-min Rain = 0
KHA3 131752Z 22007KT 17/02 A2987 RMK A01 T01660020  RH  037%=      5-min Rain = 0
KHA3 131753Z 23005KT 17/02 A2988 RMK A01 T01650019  RH  037%=      5-min Rain = 0
KHA3 131754Z 22004KT 17/02 A2988 RMK A01 T01650018  RH  037%=      5-min Rain = 0
KHA3 131755Z 21003KT 17/01 A2988 RMK A01 T01660014  RH  036%=      5-min Rain = 0
KHA3 131756Z 26004KT 17/02 A2988 RMK A01 T01690018  RH  036%=      5-min Rain = 0
KHA3 131757Z 26006KT 17/02 A2987 RMK A01 T01710018  RH  036%=      5-min Rain = 0
KHA3 131758Z 25004KT 17/02 A2987 RMK A01 T01690017  RH  036%=      5-min Rain = 0
KHA3 131759Z 23003KT 17/02 A2987 RMK A01 T01670017  RH  036%=      5-min Rain = 0
KHA3 131800Z 25003KT 17/02 A2987 RMK A01 T01670019  RH  037%=      5-min Rain = 0
KHA3 131801Z 23006KT 17/02 A2987 RMK A01 T01670018  RH  037%=      5-min Rain = 0
KHA3 131802Z 22006KT 17/02 A2987 RMK A01 T01670021  RH  037%=      5-min Rain = 0
KHA3 131803Z 24006KT 17/02 A2987 RMK A01 T01680019  RH  037%=      5-min Rain = 0
KHA3 131804Z 25003KT 17/02 A2987 RMK A01 T01680018  RH  037%=      5-min Rain = 0
KHA3 131805Z 24003KT 17/02 A2987 RMK A01 T01680018  RH  036%=      5-min Rain = 0
KHA3 131806Z 25004KT 17/02 A2987 RMK A01 T01680015  RH  036%=      5-min Rain = 0
KHA3 131807Z 26004KT 17/01 A2987 RMK A01 T01700011  RH  034%=      5-min Rain = 0
KHA3 131808Z 27006KT 17/01 A2987 RMK A01 T01710005  RH  033%=      5-min Rain = 0
KHA3 131809Z 27005KT 17/00 A2987 RMK A01 T01710004  RH  032%=      5-min Rain = 0
KHA3 131810Z 28004KT 17/01 A2987 RMK A01 T01720005  RH  032%=      5-min Rain = 0
KHA3 131811Z 26007KT 17/01 A2987 RMK A01 T01730010  RH  033%=      5-min Rain = 0
KHA3 131812Z 27005KT 17/01 A2987 RMK A01 T01740008  RH  033%=      5-min Rain = 0
KHA3 131813Z 28004KT 17/01 A2987 RMK A01 T01740006  RH  032%=      5-min Rain = 0
KHA3 131814Z 27005G10KT 17/01 A2987 RMK A01 T01740008  RH  033%=      5-min Rain = 0
KHA3 131815Z 26008KT 18/01 A2987 RMK A01 T01750011  RH  033%=      5-min Rain = 0
KHA3 131816Z 26008KT 18/01 A2987 RMK A01 T01750009  RH  033%=      5-min Rain = 0
KHA3 131817Z 25007KT 18/01 A2987 RMK A01 T01750008  RH  033%=      5-min Rain = 0
KHA3 131818Z 24005KT 18/01 A2987 RMK A01 T01750006  RH  032%=      5-min Rain = 0
KHA3 131819Z 25006KT 18/01 A2987 RMK A01 T01750009  RH  033%=      5-min Rain = 0
KHA3 131820Z 25007KT 18/01 A2987 RMK A01 T01750006  RH  032%=      5-min Rain = 0
KHA3 131821Z 27006KT 18/00 A2987 RMK A01 T01750003  RH  031%=      5-min Rain = 0
KHA3 131822Z 27006KT 18/00 A2987 RMK A01 T01760004  RH  031%=      5-min Rain = 0
KHA3 131823Z 27006KT 18/00 A2987 RMK A01 T01770001  RH  030%=      5-min Rain = 0
KHA3 131824Z 28007KT 18/00 A2987 RMK A01 T01770001  RH  030%=      5-min Rain = 0
KHA3 131825Z 25006KT 18/00 A2987 RMK A01 T01780003  RH  031%=      5-min Rain = 0
KHA3 131826Z 28008KT 18/00 A2987 RMK A01 T01800003  RH  030%=      5-min Rain = 0
KHA3 131827Z 27007KT 18/00 A2987 RMK A01 T01810002  RH  030%=      5-min Rain = 0
KHA3 131828Z 29007KT 18/00 A2987 RMK A01 T01800002  RH  030%=      5-min Rain = 0
KHA3 131829Z 26006KT 18/00 A2987 RMK A01 T01790004  RH  031%=      5-min Rain = 0
KHA3 131830Z 26007KT 18/00 A2987 RMK A01 T01800004  RH  031%=      5-min Rain = 0
KHA3 131831Z 28008KT 18/00 A2987 RMK A01 T01800003  RH  030%=      5-min Rain = 0
KHA3 131832Z 25007KT 18/00 A2986 RMK A01 T01800001  RH  030%=      5-min Rain = 0
KHA3 131833Z 25006KT 18/00 A2986 RMK A01 T01790001  RH  030%=      5-min Rain = 0
KHA3 131834Z 25005KT 18/00 A2986 RMK A01 T01770004  RH  031%=      5-min Rain = 0
KHA3 131835Z 26005KT 18/01 A2986 RMK A01 T01780007  RH  032%=      5-min Rain = 0
KHA3 131836Z 23006KT 18/01 A2986 RMK A01 T01790008  RH  031%=      5-min Rain = 0
KHA3 131837Z 25007KT 18/01 A2986 RMK A01 T01800005  RH  031%=      5-min Rain = 0
KHA3 131838Z 25006KT 18/01 A2986 RMK A01 T01800007  RH  031%=      5-min Rain = 0
KHA3 131839Z 26007KT 18/01 A2986 RMK A01 T01800009  RH  031%=      5-min Rain = 0
KHA3 131840Z 26006KT 18/01 A2985 RMK A01 T01800006  RH  031%=      5-min Rain = 0
KHA3 131841Z 27006KT 18/01 A2985 RMK A01 T01790005  RH  031%=      5-min Rain = 0
KHA3 131842Z 28008KT 18/01 A2985 RMK A01 T01790007  RH  031%=      5-min Rain = 0
KHA3 131843Z 27009KT 18/01 A2985 RMK A01 T01810006  RH  031%=      5-min Rain = 0
KHA3 131844Z 26008KT 18/00 A2985 RMK A01 T01810004  RH  030%=      5-min Rain = 0
KHA3 131845Z 25007KT 18/00 A2985 RMK A01 T01810001  RH  030%=      5-min Rain = 0
KHA3 131846Z 26005KT 18/M00 A2984 RMK A01 T01791001  RH  030%=      5-min Rain = 0
KHA3 131847Z 27006KT 18/00 A2984 RMK A01 T01770003  RH  031%=      5-min Rain = 0
KHA3 131848Z 25009KT 18/00 A2985 RMK A01 T01780004  RH  031%=      5-min Rain = 0
KHA3 131849Z 26008KT 18/00 A2985 RMK A01 T01790001  RH  030%=      5-min Rain = 0
KHA3 131850Z 27009KT 18/00 A2985 RMK A01 T01790001  RH  030%=      5-min Rain = 0
KHA3 131851Z 26007KT 18/00 A2985 RMK A01 T017900-0  RH  030%=      5-min Rain = 0
KHA3 131852Z 25006KT 18/00 A2985 RMK A01 T01800000  RH  030%=      5-min Rain = 0
KHA3 131853Z 26006KT 18/00 A2985 RMK A01 T01820000  RH  029%=      5-min Rain = 0
KHA3 131854Z 28006KT 18/M00 A2985 RMK A01 T01841001  RH  029%=      5-min Rain = 0
KHA3 131855Z 28005KT 18/00 A2984 RMK A01 T018300-0  RH  029%=      5-min Rain = 0
KHA3 131856Z 28003KT 18/M00 A2984 RMK A01 T01821002  RH  029%=      5-min Rain = 0
KHA3 131857Z 26003KT 18/00 A2984 RMK A01 T01820001  RH  030%=      5-min Rain = 0
KHA3 131858Z 27002KT 18/00 A2984 RMK A01 T01820002  RH  030%=      5-min Rain = 0
KHA3 131859Z 27002KT 18/00 A2984 RMK A01 T01840003  RH  030%=      5-min Rain = 0
KHA3 131900Z 29003KT 19/00 A2983 RMK A01 T01850003  RH  029%=      5-min Rain = 0
KHA3 131901Z 27003KT 19/00 A2983 RMK A01 T01850003  RH  029%=      5-min Rain = 0
KHA3 131902Z 27005KT 19/00 A2983 RMK A01 T01850004  RH  030%=      5-min Rain = 0
KHA3 131903Z 27003KT 18/00 A2984 RMK A01 T01840004  RH  030%=      5-min Rain = 0
KHA3 131904Z 26004KT 18/00 A2984 RMK A01 T01840004  RH  030%=      5-min Rain = 0
KHA3 131905Z 27004KT 18/00 A2983 RMK A01 T01830004  RH  030%=      5-min Rain = 0
KHA3 131906Z 27005KT 18/01 A2983 RMK A01 T01830005  RH  030%=      5-min Rain = 0
KHA3 131907Z 26005KT 18/00 A2983 RMK A01 T01840003  RH  030%=      5-min Rain = 0
KHA3 131908Z 27009KT 18/00 A2983 RMK A01 T01840000  RH  029%=      5-min Rain = 0
KHA3 131909Z 26009KT 19/00 A2983 RMK A01 T018500-0  RH  029%=      5-min Rain = 0
KHA3 131910Z 26008KT 19/M00 A2983 RMK A01 T01851002  RH  028%=      5-min Rain = 0
KHA3 131911Z 27006KT 19/M00 A2983 RMK A01 T01851003  RH  028%=      5-min Rain = 0
KHA3 131912Z 27004KT 18/M00 A2983 RMK A01 T01841002  RH  028%=      5-min Rain = 0
KHA3 131913Z 27004KT 18/M00 A2984 RMK A01 T01841002  RH  028%=      5-min Rain = 0
KHA3 131914Z 25003KT 18/M00 A2983 RMK A01 T01841003  RH  028%=      5-min Rain = 0
KHA3 131915Z 26003KT 18/M00 A2983 RMK A01 T01841001  RH  029%=      5-min Rain = 0
KHA3 131916Z 28005KT 19/00 A2983 RMK A01 T01860002  RH  029%=      5-min Rain = 0
KHA3 131917Z 26006KT 19/00 A2983 RMK A01 T01870000  RH  028%=      5-min Rain = 0
KHA3 131918Z 25005KT 19/00 A2983 RMK A01 T018800-0  RH  028%=      5-min Rain = 0
KHA3 131919Z 26009KT 19/00 A2983 RMK A01 T01900003  RH  029%=      5-min Rain = 0
KHA3 131920Z 26008KT 19/M00 A2983 RMK A01 T01911001  RH  027%=      5-min Rain = 0
KHA3 131921Z 25006KT 19/M01 A2983 RMK A01 T01891005  RH  027%=      5-min Rain = 0
KHA3 131922Z 24003KT 19/M01 A2983 RMK A01 T01871007  RH  027%=      5-min Rain = 0
KHA3 131923Z 23001KT 19/M01 A2983 RMK A01 T01861005  RH  027%=      5-min Rain = 0
KHA3 131924Z 27002KT 19/M00 A2983 RMK A01 T01881004  RH  027%=      5-min Rain = 0
KHA3 131925Z 26004KT 19/00 A2983 RMK A01 T019000-0  RH  028%=      5-min Rain = 0
KHA3 131926Z 26004KT 19/M00 A2983 RMK A01 T01911003  RH  027%=      5-min Rain = 0
KHA3 131927Z 28004KT 19/M00 A2983 RMK A01 T01911003  RH  027%=      5-min Rain = 0
KHA3 131928Z 29007KT 19/M01 A2983 RMK A01 T01911006  RH  026%=      5-min Rain = 0
KHA3 131929Z 29006KT 19/M01 A2983 RMK A01 T01921008  RH  026%=      5-min Rain = 0
KHA3 131930Z 27004KT 19/M01 A2983 RMK A01 T01921009  RH  026%=      5-min Rain = 0
KHA3 131931Z 27003KT 19/M01 A2983 RMK A01 T01911008  RH  026%=      5-min Rain = 0
KHA3 131932Z 28004KT 19/M01 A2983 RMK A01 T01911008  RH  026%=      5-min Rain = 0
KHA3 131933Z 31007KT 19/M01 A2983 RMK A01 T01921009  RH  026%=      5-min Rain = 0
KHA3 131934Z 30007KT 19/M01 A2983 RMK A01 T01921010  RH  026%=      5-min Rain = 0
KHA3 131935Z 29005KT 19/M01 A2983 RMK A01 T01911011  RH  026%=      5-min Rain = 0
KHA3 131936Z 28006KT 19/M01 A2983 RMK A01 T01911009  RH  026%=      5-min Rain = 0
KHA3 131937Z 29006KT 19/M01 A2983 RMK A01 T01911011  RH  026%=      5-min Rain = 0
KHA3 131938Z 30005KT 19/M01 A2983 RMK A01 T01901011  RH  026%=      5-min Rain = 0
KHA3 131939Z 29006KT 19/M01 A2983 RMK A01 T01911010  RH  026%=      5-min Rain = 0
KHA3 131940Z 30007KT 19/M01 A2983 RMK A01 T01921010  RH  025%=      5-min Rain = 0
KHA3 131941Z 30006KT 19/M01 A2983 RMK A01 T01921009  RH  026%=      5-min Rain = 0
KHA3 131942Z 30005KT 19/M01 A2983 RMK A01 T01931008  RH  026%=      5-min Rain = 0
KHA3 131943Z 30004KT 19/M01 A2983 RMK A01 T01941011  RH  025%=      5-min Rain = 0
KHA3 131944Z 30006KT 19/M01 A2983 RMK A01 T01931011  RH  025%=      5-min Rain = 0
KHA3 131945Z 29006KT 19/M01 A2983 RMK A01 T01931012  RH  025%=      5-min Rain = 0
KHA3 131946Z 28003KT 19/M01 A2982 RMK A01 T01931013  RH  025%=      5-min Rain = 0
KHA3 131947Z 25006KT 19/M01 A2982 RMK A01 T01921012  RH  025%=      5-min Rain = 0
KHA3 131948Z 25006KT 19/M01 A2983 RMK A01 T01941010  RH  025%=      5-min Rain = 0
KHA3 131949Z 25005KT 19/M01 A2983 RMK A01 T01941011  RH  025%=      5-min Rain = 0
KHA3 131950Z 27004KT 19/M01 A2983 RMK A01 T01941010  RH  025%=      5-min Rain = 0
KHA3 131951Z 27004KT 19/M01 A2983 RMK A01 T01941010  RH  025%=      5-min Rain = 0
KHA3 131952Z 28004KT 20/M01 A2982 RMK A01 T01951009  RH  025%=      5-min Rain = 0
KHA3 131953Z 28007KT 20/M01 A2982 RMK A01 T01971008  RH  025%=      5-min Rain = 0
KHA3 131954Z 29005KT 20/M01 A2982 RMK A01 T01971014  RH  024%=      5-min Rain = 0
KHA3 131955Z 31005KT 20/M01 A2982 RMK A01 T01951012  RH  025%=      5-min Rain = 0
KHA3 131956Z 31004KT 19/M01 A2982 RMK A01 T01941013  RH  025%=      5-min Rain = 0
KHA3 131957Z 27006KT 19/M01 A2982 RMK A01 T01941011  RH  025%=      5-min Rain = 0
KHA3 131958Z 29006KT 20/M01 A2982 RMK A01 T01961010  RH  025%=      5-min Rain = 0
KHA3 131959Z 29008KT 20/M01 A2982 RMK A01 T01971010  RH  025%=      5-min Rain = 0
KHA3 132000Z 29006KT 20/M01 A2982 RMK A01 T01981012  RH  024%=      5-min Rain = 0
KHA3 132001Z 29008KT 20/M01 A2982 RMK A01 T01971009  RH  025%=      5-min Rain = 0
KHA3 132002Z 30008KT 20/M01 A2982 RMK A01 T01971012  RH  024%=      5-min Rain = 0
KHA3 132003Z 31006KT 20/M01 A2982 RMK A01 T01981011  RH  025%=      5-min Rain = 0
KHA3 132004Z 29007KT 20/M01 A2982 RMK A01 T01991008  RH  025%=      5-min Rain = 0
KHA3 132005Z 28008KT 20/M01 A2982 RMK A01 T02001012  RH  024%=      5-min Rain = 0
KHA3 132006Z 26008KT 20/M01 A2982 RMK A01 T01991010  RH  025%=      5-min Rain = 0
KHA3 132007Z 27007KT 20/M01 A2982 RMK A01 T01991010  RH  024%=      5-min Rain = 0
KHA3 132008Z 26007KT 20/M01 A2982 RMK A01 T01981012  RH  024%=      5-min Rain = 0
KHA3 132009Z 28006KT 20/M01 A2982 RMK A01 T01961012  RH  025%=      5-min Rain = 0
KHA3 132010Z 25006KT 20/M01 A2982 RMK A01 T01951010  RH  025%=      5-min Rain = 0
KHA3 132011Z 24008KT 20/M01 A2982 RMK A01 T01971009  RH  025%=      5-min Rain = 0
KHA3 132012Z 25006KT 20/M01 A2982 RMK A01 T01981010  RH  025%=      5-min Rain = 0
KHA3 132013Z 25005KT 20/M01 A2982 RMK A01 T01981012  RH  024%=      5-min Rain = 0
KHA3 132014Z 22004KT 20/M01 A2982 RMK A01 T01971012  RH  024%=      5-min Rain = 0
KHA3 132015Z 28006KT 20/M01 A2982 RMK A01 T01981010  RH  025%=      5-min Rain = 0
KHA3 132016Z 28006KT 20/M01 A2982 RMK A01 T01991012  RH  024%=      5-min Rain = 0
KHA3 132017Z 28006KT 20/M01 A2982 RMK A01 T01991014  RH  024%=      5-min Rain = 0
KHA3 132018Z 27008KT 20/M01 A2982 RMK A01 T01991012  RH  024%=      5-min Rain = 0
KHA3 132019Z 26009KT 20/M01 A2982 RMK A01 T02001009  RH  024%=      5-min Rain = 0
KHA3 132020Z 26009KT 20/M01 A2982 RMK A01 T02011013  RH  024%=      5-min Rain = 0
KHA3 132021Z 25008KT 20/M02 A2982 RMK A01 T02011016  RH  023%=      5-min Rain = 0
KHA3 132022Z 25007KT 20/M02 A2982 RMK A01 T01991015  RH  024%=      5-min Rain = 0
KHA3 132023Z 25006KT 20/M01 A2982 RMK A01 T01981012  RH  024%=      5-min Rain = 0
KHA3 132024Z 26006KT 20/M01 A2982 RMK A01 T01991011  RH  024%=      5-min Rain = 0
KHA3 132025Z 27008KT 20/M01 A2982 RMK A01 T02001011  RH  024%=      5-min Rain = 0
KHA3 132026Z 28007KT 20/M02 A2982 RMK A01 T02011015  RH  023%=      5-min Rain = 0
KHA3 132027Z 28008KT 20/M01 A2982 RMK A01 T02011013  RH  024%=      5-min Rain = 0
KHA3 132028Z 27006KT 20/M02 A2982 RMK A01 T02001015  RH  023%=      5-min Rain = 0
KHA3 132029Z 27006KT 20/M01 A2982 RMK A01 T01991014  RH  024%=      5-min Rain = 0
KHA3 132030Z 28008KT 20/M01 A2982 RMK A01 T02001012  RH  024%=      5-min Rain = 0
KHA3 132031Z 28007KT 20/M01 A2981 RMK A01 T02001013  RH  024%=      5-min Rain = 0
KHA3 132032Z 28007KT 20/M01 A2981 RMK A01 T02001014  RH  024%=      5-min Rain = 0
KHA3 132033Z 28006KT 20/M01 A2981 RMK A01 T02001014  RH  024%=      5-min Rain = 0
KHA3 132034Z 28006KT 20/M02 A2981 RMK A01 T02001015  RH  023%=      5-min Rain = 0
KHA3 132035Z 29005KT 20/M02 A2981 RMK A01 T01991015  RH  024%=      5-min Rain = 0
KHA3 132036Z 29006KT 20/M01 A2982 RMK A01 T01991014  RH  024%=      5-min Rain = 0
KHA3 132037Z 30006KT 20/M01 A2982 RMK A01 T01991014  RH  024%=      5-min Rain = 0
KHA3 132038Z 30004KT 20/M02 A2982 RMK A01 T01981017  RH  023%=      5-min Rain = 0
KHA3 132039Z 30004KT 20/M01 A2982 RMK A01 T01981013  RH  024%=      5-min Rain = 0
KHA3 132040Z 31005KT 20/M01 A2982 RMK A01 T01991014  RH  024%=      5-min Rain = 0
KHA3 132041Z 31005KT 20/M01 A2982 RMK A01 T02001013  RH  024%=      5-min Rain = 0
KHA3 132042Z 32005KT 20/M01 A2982 RMK A01 T02011014  RH  023%=      5-min Rain = 0
KHA3 132043Z 32005KT 20/M01 A2982 RMK A01 T02011014  RH  023%=      5-min Rain = 0
KHA3 132044Z 31006KT 20/M01 A2982 RMK A01 T02011014  RH  023%=      5-min Rain = 0
KHA3 132045Z 29004KT 20/M02 A2982 RMK A01 T02011016  RH  023%=      5-min Rain = 0
KHA3 132046Z 30005KT 20/M01 A2982 RMK A01 T02001014  RH  024%=      5-min Rain = 0
KHA3 132047Z 31005KT 20/M02 A2982 RMK A01 T02001015  RH  023%=      5-min Rain = 0
KHA3 132048Z 30008KT 20/M01 A2982 RMK A01 T02011013  RH  024%=      5-min Rain = 0
KHA3 132049Z 30007KT 20/M02 A2982 RMK A01 T02011015  RH  023%=      5-min Rain = 0
KHA3 132050Z 30008KT 20/M01 A2982 RMK A01 T02001014  RH  024%=      5-min Rain = 0
KHA3 132051Z 29008KT 20/M01 A2982 RMK A01 T02011013  RH  024%=      5-min Rain = 0
KHA3 132052Z 30006KT 20/M02 A2982 RMK A01 T02021015  RH  023%=      5-min Rain = 0
KHA3 132053Z 31006KT 20/M01 A2982 RMK A01 T02011014  RH  023%=      5-min Rain = 0
KHA3 132054Z 31005KT 20/M01 A2982 RMK A01 T02021013  RH  024%=      5-min Rain = 0
KHA3 132055Z 32005KT 20/M01 A2982 RMK A01 T02021014  RH  023%=      5-min Rain = 0
KHA3 132056Z 31006KT 20/M02 A2982 RMK A01 T02021015  RH  023%=      5-min Rain = 0
KHA3 132057Z 33003KT 20/M02 A2982 RMK A01 T02011016  RH  023%=      5-min Rain = 0
KHA3 132058Z 33004KT 20/M02 A2981 RMK A01 T02001015  RH  023%=      5-min Rain = 0
KHA3 132059Z 33004KT 20/M02 A2981 RMK A01 T01991015  RH  023%=      5-min Rain = 0
KHA3 132100Z 30004KT 20/M01 A2982 RMK A01 T01991014  RH  024%=      5-min Rain = 0
KHA3 132101Z 30005KT 20/M01 A2982 RMK A01 T02011011  RH  024%=      5-min Rain = 0
KHA3 132102Z 31006KT 20/M01 A2982 RMK A01 T02031012  RH  024%=      5-min Rain = 0
KHA3 132103Z 32006KT 20/M01 A2982 RMK A01 T02041012  RH  023%=      5-min Rain = 0
KHA3 132104Z 30004KT 20/M01 A2982 RMK A01 T02041013  RH  023%=      5-min Rain = 0
KHA3 132105Z 30003KT 20/M01 A2981 RMK A01 T02041012  RH  023%=      5-min Rain = 0
KHA3 132106Z 32005KT 20/M01 A2982 RMK A01 T02041012  RH  023%=      5-min Rain = 0
KHA3 132107Z 32004KT 20/M01 A2982 RMK A01 T02041013  RH  023%=      5-min Rain = 0
KHA3 132108Z 34004KT 20/M01 A2982 RMK A01 T02041013  RH  023%=      5-min Rain = 0
KHA3 132109Z 34003KT 20/M01 A2982 RMK A01 T02021014  RH  023%=      5-min Rain = 0
KHA3 132110Z 35002KT 20/M01 A2982 RMK A01 T02021013  RH  023%=      5-min Rain = 0
KHA3 132111Z 36001KT 20/M01 A2982 RMK A01 T02031011  RH  024%=      5-min Rain = 0
KHA3 132112Z 34003KT 20/M01 A2981 RMK A01 T02041013  RH  023%=      5-min Rain = 0
KHA3 132113Z 31005KT 21/M01 A2981 RMK A01 T02051010  RH  024%=      5-min Rain = 0
KHA3 132114Z 00006KT 21/M01 A2982 RMK A01 T02051011  RH  023%=      5-min Rain = 0
KHA3 132115Z 35006KT 21/M01 A2982 RMK A01 T02061011  RH  023%=      5-min Rain = 0
KHA3 132116Z 33006KT 21/M01 A2982 RMK A01 T02051008  RH  024%=      5-min Rain = 0
KHA3 132117Z 34006KT 21/M01 A2982 RMK A01 T02061011  RH  023%=      5-min Rain = 0
KHA3 132118Z 34004KT 20/M01 A2982 RMK A01 T02041014  RH  023%=      5-min Rain = 0
KHA3 132119Z 34004KT 20/M01 A2982 RMK A01 T02021013  RH  024%=      5-min Rain = 0
KHA3 132120Z 34004KT 20/M01 A2982 RMK A01 T02031011  RH  024%=      5-min Rain = 0
KHA3 132121Z 34006KT 20/M01 A2982 RMK A01 T02041010  RH  024%=      5-min Rain = 0
KHA3 132122Z 35004KT 20/M01 A2982 RMK A01 T02041013  RH  023%=      5-min Rain = 0
KHA3 132123Z 36004KT 20/M01 A2982 RMK A01 T02041011  RH  024%=      5-min Rain = 0
KHA3 132124Z 35004KT 20/M01 A2982 RMK A01 T02041012  RH  023%=      5-min Rain = 0
KHA3 132125Z 33005KT 21/M01 A2982 RMK A01 T02051010  RH  024%=      5-min Rain = 0
KHA3 132126Z 33004KT 21/M01 A2982 RMK A01 T02051009  RH  024%=      5-min Rain = 0
KHA3 132127Z 34004KT 21/M01 A2982 RMK A01 T02061008  RH  024%=      5-min Rain = 0
KHA3 132128Z 33004KT 21/M01 A2982 RMK A01 T02071009  RH  023%=      5-min Rain = 0
KHA3 132129Z 33006KT 21/M01 A2982 RMK A01 T02071011  RH  023%=      5-min Rain = 0
KHA3 132130Z 35006KT 21/M01 A2982 RMK A01 T02071009  RH  023%=      5-min Rain = 0
KHA3 132131Z 34007KT 21/M01 A2982 RMK A01 T02071010  RH  023%=      5-min Rain = 0
KHA3 132132Z 33007KT 21/M01 A2982 RMK A01 T02071010  RH  023%=      5-min Rain = 0
KHA3 132133Z 33009KT 21/M01 A2982 RMK A01 T02061011  RH  023%=      5-min Rain = 0
KHA3 132134Z 33006KT 21/M01 A2982 RMK A01 T02051012  RH  023%=      5-min Rain = 0
KHA3 132135Z 32005KT 20/M01 A2982 RMK A01 T02041013  RH  023%=      5-min Rain = 0
KHA3 132136Z 32004KT 20/M01 A2982 RMK A01 T02031012  RH  024%=      5-min Rain = 0
KHA3 132137Z 35005KT 20/M01 A2982 RMK A01 T02031011  RH  024%=      5-min Rain = 0
KHA3 132138Z 36004KT 21/M01 A2982 RMK A01 T02051009  RH  024%=      5-min Rain = 0
KHA3 132139Z 01005KT 21/M01 A2982 RMK A01 T02051011  RH  023%=      5-min Rain = 0
KHA3 132140Z 01006KT 21/M01 A2982 RMK A01 T02061010  RH  023%=      5-min Rain = 0
KHA3 132141Z 00007KT 21/M01 A2982 RMK A01 T02061008  RH  024%=      5-min Rain = 0
KHA3 132142Z 35006KT 21/M01 A2982 RMK A01 T02061010  RH  023%=      5-min Rain = 0
KHA3 132143Z 35005KT 21/M01 A2982 RMK A01 T02051011  RH  023%=      5-min Rain = 0
KHA3 132144Z 01004KT 20/M01 A2982 RMK A01 T02041010  RH  024%=      5-min Rain = 0
KHA3 132145Z 35005KT 20/M01 A2981 RMK A01 T02041010  RH  024%=      5-min Rain = 0
KHA3 132146Z 34005KT 21/M01 A2981 RMK A01 T02051011  RH  023%=      5-min Rain = 0
KHA3 132147Z 33005KT 21/M01 A2981 RMK A01 T02051009  RH  024%=      5-min Rain = 0
KHA3 132148Z 34003KT 21/M01 A2981 RMK A01 T02051010  RH  024%=      5-min Rain = 0
KHA3 132149Z 34004KT 21/M01 A2981 RMK A01 T02051010  RH  024%=      5-min Rain = 0
KHA3 132150Z 35004KT 21/M01 A2981 RMK A01 T02051010  RH  024%=      5-min Rain = 0
KHA3 132151Z 00004KT 21/M01 A2981 RMK A01 T02051010  RH  024%=      5-min Rain = 0
KHA3 132152Z 35005KT 21/M01 A2981 RMK A01 T02051011  RH  023%=      5-min Rain = 0
KHA3 132153Z 34006KT 21/M01 A2981 RMK A01 T02051009  RH  024%=      5-min Rain = 0
KHA3 132154Z 35006KT 20/M01 A2981 RMK A01 T02041011  RH  024%=      5-min Rain = 0
KHA3 132155Z 35006KT 20/M01 A2981 RMK A01 T02031010  RH  024%=      5-min Rain = 0
KHA3 132156Z 34006KT 20/M01 A2981 RMK A01 T02021011  RH  024%=      5-min Rain = 0
KHA3 132157Z 35006KT 20/M01 A2981 RMK A01 T02021009  RH  024%=      5-min Rain = 0
KHA3 132158Z 35006KT 20/M01 A2981 RMK A01 T02021009  RH  024%=      5-min Rain = 0
KHA3 132159Z 34005KT 20/M01 A2981 RMK A01 T02021011  RH  024%=      5-min Rain = 0
KHA3 132200Z 35004KT 20/M01 A2981 RMK A01 T02011012  RH  024%=      5-min Rain = 0
KHA3 132201Z 36006KT 20/M01 A2981 RMK A01 T02021009  RH  024%=      5-min Rain = 0
KHA3 132202Z 35006KT 20/M01 A2981 RMK A01 T02011010  RH  024%=      5-min Rain = 0
KHA3 132203Z 35005KT 20/M01 A2981 RMK A01 T02011011  RH  024%=      5-min Rain = 0
KHA3 132204Z 35005KT 20/M01 A2981 RMK A01 T02011010  RH  024%=      5-min Rain = 0
KHA3 132205Z 34005KT 20/M01 A2981 RMK A01 T02011011  RH  024%=      5-min Rain = 0
KHA3 132206Z 35005KT 20/M01 A2981 RMK A01 T02011009  RH  024%=      5-min Rain = 0
KHA3 132207Z 34003KT 20/M01 A2981 RMK A01 T02011010  RH  024%=      5-min Rain = 0
KHA3 132208Z 33004KT 20/M01 A2981 RMK A01 T02011010  RH  024%=      5-min Rain = 0
KHA3 132209Z 32005KT 20/M01 A2981 RMK A01 T02021010  RH  024%=      5-min Rain = 0
KHA3 132210Z 32005KT 20/M01 A2981 RMK A01 T02021009  RH  024%=      5-min Rain = 0
KHA3 132211Z 32005KT 20/M01 A2981 RMK A01 T02021009  RH  024%=      5-min Rain = 0
KHA3 132212Z 32004KT 20/M01 A2981 RMK A01 T02021010  RH  024%=      5-min Rain = 0
KHA3 132213Z 34004KT 20/M01 A2981 RMK A01 T02021010  RH  024%=      5-min Rain = 0
KHA3 132214Z 35004KT 20/M01 A2981 RMK A01 T02021009  RH  024%=      5-min Rain = 0
KHA3 132215Z 35004KT 20/M01 A2981 RMK A01 T02021009  RH  024%=      5-min Rain = 0
KHA3 132216Z 34005KT 20/M01 A2981 RMK A01 T02021009  RH  024%=      5-min Rain = 0
KHA3 132217Z 34005KT 20/M01 A2981 RMK A01 T02021009  RH  024%=      5-min Rain = 0
KHA3 132218Z 35004KT 20/M01 A2981 RMK A01 T02021008  RH  024%=      5-min Rain = 0
KHA3 132219Z 34005KT 20/M01 A2981 RMK A01 T02021007  RH  024%=      5-min Rain = 0
KHA3 132220Z 34003KT 20/M01 A2981 RMK A01 T02031007  RH  024%=      5-min Rain = 0
KHA3 132221Z 35003KT 20/M01 A2981 RMK A01 T02031009  RH  024%=      5-min Rain = 0
KHA3 132222Z 34004KT 20/M01 A2981 RMK A01 T02031008  RH  024%=      5-min Rain = 0
KHA3 132223Z 33003KT 20/M01 A2981 RMK A01 T02031007  RH  024%=      5-min Rain = 0
KHA3 132224Z 35002KT 20/M01 A2981 RMK A01 T02031007  RH  024%=      5-min Rain = 0
KHA3 132225Z 02003KT 20/M01 A2981 RMK A01 T02031008  RH  024%=      5-min Rain = 0
KHA3 132226Z 02003KT 20/M01 A2981 RMK A01 T02031009  RH  024%=      5-min Rain = 0
KHA3 132227Z 03003KT 20/M01 A2981 RMK A01 T02031009  RH  024%=      5-min Rain = 0
KHA3 132228Z 05003KT 20/M01 A2981 RMK A01 T02021010  RH  024%=      5-min Rain = 0
KHA3 132229Z 04003KT 20/M01 A2981 RMK A01 T02021011  RH  024%=      5-min Rain = 0
KHA3 132230Z 05004KT 20/M01 A2981 RMK A01 T02011010  RH  024%=      5-min Rain = 0
KHA3 132231Z 03004KT 20/M01 A2981 RMK A01 T02011008  RH  025%=      5-min Rain = 0
KHA3 132232Z 03003KT 20/M01 A2981 RMK A01 T02001006  RH  025%=      5-min Rain = 0
KHA3 132233Z 02002KT 20/M01 A2981 RMK A01 T02001007  RH  025%=      5-min Rain = 0
KHA3 132234Z 02002KT 20/M01 A2981 RMK A01 T02001006  RH  025%=      5-min Rain = 0
KHA3 132235Z 01002KT 20/M01 A2981 RMK A01 T01991008  RH  025%=      5-min Rain = 0
KHA3 132236Z 00004KT 20/M01 A2981 RMK A01 T01991008  RH  025%=      5-min Rain = 0
KHA3 132237Z 01004KT 20/M01 A2981 RMK A01 T01991007  RH  025%=      5-min Rain = 0
KHA3 132238Z 01004KT 20/M01 A2981 RMK A01 T01981007  RH  025%=      5-min Rain = 0
KHA3 132239Z 02003KT 20/M01 A2981 RMK A01 T01971009  RH  025%=      5-min Rain = 0
KHA3 132240Z 02004KT 20/M01 A2981 RMK A01 T01971008  RH  025%=      5-min Rain = 0
KHA3 132241Z 01003KT 20/M01 A2982 RMK A01 T01961007  RH  025%=      5-min Rain = 0
KHA3 132242Z 01003KT 20/M01 A2982 RMK A01 T01961008  RH  025%=      5-min Rain = 0
KHA3 132243Z 01004KT 20/M01 A2982 RMK A01 T01951008  RH  025%=      5-min Rain = 0
KHA3 132244Z 02003KT 20/M01 A2982 RMK A01 T01951008  RH  025%=      5-min Rain = 0
KHA3 132245Z 02003KT 20/M01 A2981 RMK A01 T01951008  RH  026%=      5-min Rain = 0
KHA3 132246Z 01003KT 19/M01 A2981 RMK A01 T01941008  RH  026%=      5-min Rain = 0
KHA3 132247Z 01003KT 19/M01 A2982 RMK A01 T01941009  RH  025%=      5-min Rain = 0
KHA3 132248Z 02003KT 19/M01 A2982 RMK A01 T01941008  RH  026%=      5-min Rain = 0
KHA3 132249Z 01003KT 19/M01 A2982 RMK A01 T01931009  RH  026%=      5-min Rain = 0
KHA3 132250Z 01003KT 19/M01 A2982 RMK A01 T01931008  RH  026%=      5-min Rain = 0
KHA3 132251Z 01004KT 19/M01 A2982 RMK A01 T01921008  RH  026%=      5-min Rain = 0
KHA3 132252Z 01004KT 19/M01 A2982 RMK A01 T01911009  RH  026%=      5-min Rain = 0
KHA3 132253Z 01004KT 19/M01 A2982 RMK A01 T01901009  RH  026%=      5-min Rain = 0
KHA3 132254Z 01004KT 19/M01 A2982 RMK A01 T01891009  RH  026%=      5-min Rain = 0
KHA3 132255Z 02004KT 19/M01 A2982 RMK A01 T01881009  RH  026%=      5-min Rain = 0
KHA3 132256Z 01004KT 19/M01 A2982 RMK A01 T01881009  RH  026%=      5-min Rain = 0
KHA3 132257Z 02004KT 19/M01 A2982 RMK A01 T01871009  RH  027%=      5-min Rain = 0
KHA3 132258Z 02004KT 19/M01 A2982 RMK A01 T01871009  RH  027%=      5-min Rain = 0
KHA3 132259Z 02004KT 19/M01 A2982 RMK A01 T01861009  RH  027%=      5-min Rain = 0
KHA3 132300Z 02004KT 19/M01 A2982 RMK A01 T01861009  RH  027%=      5-min Rain = 0
KHA3 132301Z 03004KT 19/M01 A2982 RMK A01 T01851009  RH  027%=      5-min Rain = 0
KHA3 132302Z 03004KT 19/M01 A2982 RMK A01 T01851010  RH  027%=      5-min Rain = 0
KHA3 132303Z 03004KT 19/M01 A2982 RMK A01 T01851009  RH  027%=      5-min Rain = 0
KHA3 132304Z 02004KT 18/M01 A2982 RMK A01 T01841009  RH  027%=      5-min Rain = 0
KHA3 132305Z 02004KT 18/M01 A2982 RMK A01 T01841010  RH  027%=      5-min Rain = 0
KHA3 132306Z 01004KT 18/M01 A2982 RMK A01 T01831010  RH  027%=      5-min Rain = 0
KHA3 132307Z 01004KT 18/M01 A2982 RMK A01 T01821010  RH  027%=      5-min Rain = 0
KHA3 132308Z 01004KT 18/M01 A2982 RMK A01 T01811010  RH  027%=      5-min Rain = 0
KHA3 132309Z 02004KT 18/M01 A2983 RMK A01 T01801010  RH  028%=      5-min Rain = 0
KHA3 132310Z 02004KT 18/M01 A2983 RMK A01 T01801010  RH  028%=      5-min Rain = 0
KHA3 132311Z 03004KT 18/M01 A2983 RMK A01 T01791010  RH  028%=      5-min Rain = 0
KHA3 132312Z 04004KT 18/M01 A2983 RMK A01 T01791010  RH  028%=      5-min Rain = 0
KHA3 132313Z 04004KT 18/M01 A2983 RMK A01 T01781010  RH  028%=      5-min Rain = 0
KHA3 132314Z 04004KT 18/M01 A2983 RMK A01 T01781010  RH  028%=      5-min Rain = 0
KHA3 132315Z 04004KT 18/M01 A2983 RMK A01 T01781010  RH  028%=      5-min Rain = 0
KHA3 132316Z 04004KT 18/M01 A2983 RMK A01 T01781011  RH  028%=      5-min Rain = 0
KHA3 132317Z 04004KT 18/M01 A2983 RMK A01 T01781011  RH  028%=      5-min Rain = 0
KHA3 132318Z 03004KT 18/M01 A2983 RMK A01 T01781010  RH  028%=      5-min Rain = 0
KHA3 132319Z 03004KT 18/M01 A2983 RMK A01 T01781010  RH  028%=      5-min Rain = 0
KHA3 132320Z 03004KT 18/M01 A2983 RMK A01 T01781010  RH  028%=      5-min Rain = 0
KHA3 132321Z 03004KT 18/M01 A2983 RMK A01 T01781011  RH  028%=      5-min Rain = 0
KHA3 132322Z 03004KT 18/M01 A2983 RMK A01 T01781011  RH  028%=      5-min Rain = 0
KHA3 132323Z 03003KT 18/M01 A2983 RMK A01 T01771011  RH  028%=      5-min Rain = 0
KHA3 132324Z 04003KT 18/M01 A2983 RMK A01 T01761010  RH  028%=      5-min Rain = 0
KHA3 132325Z 04003KT 18/M01 A2983 RMK A01 T01751011  RH  028%=      5-min Rain = 0
KHA3 132326Z 04003KT 18/M01 A2983 RMK A01 T01751011  RH  028%=      5-min Rain = 0
KHA3 132327Z 04003KT 18/M01 A2983 RMK A01 T01751011  RH  028%=      5-min Rain = 0
KHA3 132328Z 04003KT 17/M01 A2983 RMK A01 T01741012  RH  028%=      5-min Rain = 0
KHA3 132329Z 04003KT 18/M01 A2983 RMK A01 T01751012  RH  028%=      5-min Rain = 0
KHA3 132330Z 04003KT 18/M01 A2984 RMK A01 T01751012  RH  028%=      5-min Rain = 0
KHA3 132331Z 03003KT 18/M01 A2984 RMK A01 T01751012  RH  028%=      5-min Rain = 0
KHA3 132332Z 03004KT 18/M01 A2984 RMK A01 T01751012  RH  028%=      5-min Rain = 0
KHA3 132333Z 03004KT 17/M01 A2984 RMK A01 T01741011  RH  028%=      5-min Rain = 0
KHA3 132334Z 04004KT 17/M01 A2984 RMK A01 T01741011  RH  028%=      5-min Rain = 0
KHA3 132335Z 04004KT 17/M01 A2983 RMK A01 T01731012  RH  028%=      5-min Rain = 0
KHA3 132336Z 05004KT 17/M01 A2983 RMK A01 T01731012  RH  028%=      5-min Rain = 0
KHA3 132337Z 05004KT 17/M01 A2983 RMK A01 T01721012  RH  029%=      5-min Rain = 0
KHA3 132338Z 05004KT 17/M01 A2983 RMK A01 T01711012  RH  029%=      5-min Rain = 0
KHA3 132339Z 05004KT 17/M01 A2983 RMK A01 T01701011  RH  029%=      5-min Rain = 0
KHA3 132340Z 05004KT 17/M01 A2983 RMK A01 T01691010  RH  029%=      5-min Rain = 0
KHA3 132341Z 05004KT 17/M01 A2983 RMK A01 T01681010  RH  030%=      5-min Rain = 0
KHA3 132342Z 05004KT 17/M01 A2983 RMK A01 T01671010  RH  030%=      5-min Rain = 0
KHA3 132343Z 05004KT 17/M01 A2983 RMK A01 T01661009  RH  030%=      5-min Rain = 0
KHA3 132344Z 05004KT 17/M01 A2983 RMK A01 T01651009  RH  031%=      5-min Rain = 0
KHA3 132345Z 05004KT 16/M01 A2983 RMK A01 T01641010  RH  030%=      5-min Rain = 0
KHA3 132346Z 05004KT 16/M01 A2983 RMK A01 T01641010  RH  030%=      5-min Rain = 0
KHA3 132347Z 05004KT 16/M01 A2983 RMK A01 T01641010  RH  030%=      5-min Rain = 0
KHA3 132348Z 06004KT 16/M01 A2983 RMK A01 T01631011  RH  031%=      5-min Rain = 0
KHA3 132349Z 06003KT 16/M01 A2983 RMK A01 T01611010  RH  031%=      5-min Rain = 0
KHA3 132350Z 05003KT 16/M01 A2983 RMK A01 T01611010  RH  031%=      5-min Rain = 0
KHA3 132351Z 06003KT 16/M01 A2983 RMK A01 T01601010  RH  031%=      5-min Rain = 0
KHA3 132352Z 06004KT 16/M01 A2983 RMK A01 T01611010  RH  031%=      5-min Rain = 0
KHA3 132353Z 06004KT 16/M01 A2983 RMK A01 T01621010  RH  031%=      5-min Rain = 0
KHA3 132354Z 06004KT 16/M01 A2983 RMK A01 T01621010  RH  031%=      5-min Rain = 0
KHA3 132355Z 06003KT 16/M01 A2983 RMK A01 T01611009  RH  031%=      5-min Rain = 0
KHA3 132356Z 06004KT 16/M01 A2984 RMK A01 T01601010  RH  031%=      5-min Rain = 0
KHA3 132357Z 06004KT 16/M01 A2984 RMK A01 T01591010  RH  031%=      5-min Rain = 0
KHA3 132358Z 06004KT 16/M01 A2984 RMK A01 T01591010  RH  031%=      5-min Rain = 0
KHA3 132359Z 06004KT 16/M01 A2984 RMK A01 T01601010  RH  031%=      5-min Rain = 0
KHA3 140000Z 06004KT 16/M01 A2984 RMK A01 T01611010  RH  031%=      5-min Rain = 0
KHA3 140001Z 05004KT 16/M01 A2984 RMK A01 T01611010  RH  031%=      5-min Rain = 0
KHA3 140002Z 05004KT 16/M01 A2984 RMK A01 T01611010  RH  031%=      5-min Rain = 0
KHA3 140003Z 05004KT 16/M01 A2984 RMK A01 T01601010  RH  031%=      5-min Rain = 0
KHA3 140004Z 05004KT 16/M01 A2984 RMK A01 T01601010  RH  031%=      5-min Rain = 0
KHA3 140005Z 06004KT 16/M01 A2984 RMK A01 T01591010  RH  032%=      5-min Rain = 0
KHA3 140006Z 06004KT 16/M01 A2984 RMK A01 T01581009  RH  032%=      5-min Rain = 0
KHA3 140007Z 06004KT 16/M01 A2984 RMK A01 T01581010  RH  032%=      5-min Rain = 0
KHA3 140008Z 06004KT 16/M01 A2984 RMK A01 T01581009  RH  032%=      5-min Rain = 0
KHA3 140009Z 05004KT 16/M01 A2984 RMK A01 T01581009  RH  032%=      5-min Rain = 0
KHA3 140010Z 05004KT 16/M01 A2984 RMK A01 T01581010  RH  032%=      5-min Rain = 0
KHA3 140011Z 05004KT 16/M01 A2984 RMK A01 T01581010  RH  032%=      5-min Rain = 0
KHA3 140012Z 05004KT 16/M01 A2984 RMK A01 T01581010  RH  032%=      5-min Rain = 0
KHA3 140013Z 06005KT 16/M01 A2984 RMK A01 T01571010  RH  032%=      5-min Rain = 0
KHA3 140014Z 06005KT 16/M01 A2984 RMK A01 T01571010  RH  032%=      5-min Rain = 0
KHA3 140015Z 06005KT 16/M01 A2984 RMK A01 T01571010  RH  032%=      5-min Rain = 0
KHA3 140016Z 06005KT 16/M01 A2984 RMK A01 T01581010  RH  032%=      5-min Rain = 0
KHA3 140017Z 05005KT 16/M01 A2984 RMK A01 T01571010  RH  032%=      5-min Rain = 0
KHA3 140018Z 05004KT 16/M01 A2984 RMK A01 T01561010  RH  032%=      5-min Rain = 0
KHA3 140019Z 06004KT 16/M01 A2984 RMK A01 T01551010  RH  032%=      5-min Rain = 0
KHA3 140020Z 06005KT 15/M01 A2984 RMK A01 T01541010  RH  032%=      5-min Rain = 0
KHA3 140021Z 06005KT 15/M01 A2984 RMK A01 T01531010  RH  033%=      5-min Rain = 0
KHA3 140022Z 06005KT 15/M01 A2984 RMK A01 T01531010  RH  033%=      5-min Rain = 0
KHA3 140023Z 05005KT 15/M01 A2984 RMK A01 T01531010  RH  033%=      5-min Rain = 0
KHA3 140024Z 05005KT 15/M01 A2984 RMK A01 T01521010  RH  033%=      5-min Rain = 0
KHA3 140025Z 05005KT 15/M01 A2984 RMK A01 T01531010  RH  033%=      5-min Rain = 0
KHA3 140026Z 05005KT 15/M01 A2984 RMK A01 T01521010  RH  033%=      5-min Rain = 0
KHA3 140027Z 05005KT 15/M01 A2984 RMK A01 T01521010  RH  033%=      5-min Rain = 0
KHA3 140028Z 05005KT 15/M01 A2984 RMK A01 T01521010  RH  033%=      5-min Rain = 0
KHA3 140029Z 05005KT 15/M01 A2984 RMK A01 T01511011  RH  033%=      5-min Rain = 0
KHA3 140030Z 06005KT 15/M01 A2984 RMK A01 T01501011  RH  033%=      5-min Rain = 0
KHA3 140031Z 06005KT 15/M01 A2984 RMK A01 T01511011  RH  033%=      5-min Rain = 0
KHA3 140032Z 06005KT 15/M01 A2984 RMK A01 T01521011  RH  033%=      5-min Rain = 0
KHA3 140033Z 06004KT 15/M01 A2984 RMK A01 T01521011  RH  033%=      5-min Rain = 0
KHA3 140034Z 07004KT 15/M01 A2984 RMK A01 T01521011  RH  033%=      5-min Rain = 0
KHA3 140035Z 07004KT 15/M01 A2984 RMK A01 T01521011  RH  033%=      5-min Rain = 0
KHA3 140036Z 07003KT 15/M01 A2984 RMK A01 T01501010  RH  033%=      5-min Rain = 0
KHA3 140037Z 06004KT 15/M01 A2985 RMK A01 T01481011  RH  033%=      5-min Rain = 0
KHA3 140038Z 07004KT 15/M01 A2985 RMK A01 T01481011  RH  033%=      5-min Rain = 0
KHA3 140039Z 07004KT 15/M01 A2985 RMK A01 T01481011  RH  033%=      5-min Rain = 0
KHA3 140040Z 07005KT 15/M01 A2985 RMK A01 T01481011  RH  034%=      5-min Rain = 0
KHA3 140041Z 07005KT 15/M01 A2985 RMK A01 T01481011  RH  034%=      5-min Rain = 0
KHA3 140042Z 07005KT 15/M01 A2985 RMK A01 T01471011  RH  034%=      5-min Rain = 0
KHA3 140043Z 07005KT 15/M01 A2985 RMK A01 T01471011  RH  034%=      5-min Rain = 0
KHA3 140044Z 07006KT 15/M01 A2985 RMK A01 T01471011  RH  034%=      5-min Rain = 0
KHA3 140045Z 07006KT 15/M01 A2985 RMK A01 T01471011  RH  034%=      5-min Rain = 0
KHA3 140046Z 07006KT 15/M01 A2985 RMK A01 T01481011  RH  034%=      5-min Rain = 0
KHA3 140047Z 07006KT 15/M01 A2985 RMK A01 T01471011  RH  034%=      5-min Rain = 0
KHA3 140048Z 07006KT 15/M01 A2985 RMK A01 T01461011  RH  034%=      5-min Rain = 0
KHA3 140049Z 07006KT 15/M01 A2985 RMK A01 T01451010  RH  034%=      5-min Rain = 0
KHA3 140050Z 07006KT 14/M01 A2985 RMK A01 T01441010  RH  035%=      5-min Rain = 0
KHA3 140051Z 07006KT 14/M01 A2985 RMK A01 T01431010  RH  035%=      5-min Rain = 0
KHA3 140052Z 07006KT 14/M01 A2985 RMK A01 T01431010  RH  035%=      5-min Rain = 0
KHA3 140053Z 07006KT 14/M01 A2985 RMK A01 T01421010  RH  035%=      5-min Rain = 0
KHA3 140054Z 07006KT 14/M01 A2985 RMK A01 T01421010  RH  035%=      5-min Rain = 0
KHA3 140055Z 07006KT 14/M01 A2985 RMK A01 T01421010  RH  035%=      5-min Rain = 0
KHA3 140056Z 07007KT 14/M01 A2985 RMK A01 T01411010  RH  035%=      5-min Rain = 0
KHA3 140057Z 07007KT 14/M01 A2985 RMK A01 T01401011  RH  035%=      5-min Rain = 0
KHA3 140058Z 07007KT 14/M01 A2985 RMK A01 T01401010  RH  035%=      5-min Rain = 0
KHA3 140059Z 07007KT 14/M01 A2985 RMK A01 T01391010  RH  036%=      5-min Rain = 0
KHA3 140100Z 07007KT 14/M01 A2985 RMK A01 T01381010  RH  036%=      5-min Rain = 0
KHA3 140101Z 07007KT 14/M01 A2985 RMK A01 T01361010  RH  036%=      5-min Rain = 0
KHA3 140102Z 07007KT 14/M01 A2985 RMK A01 T01351010  RH  037%=      5-min Rain = 0
KHA3 140103Z 07007KT 13/M01 A2985 RMK A01 T01341010  RH  037%=      5-min Rain = 0
KHA3 140104Z 08007KT 13/M01 A2985 RMK A01 T01341010  RH  037%=      5-min Rain = 0
KHA3 140105Z 08007KT 13/M01 A2985 RMK A01 T01341010  RH  037%=      5-min Rain = 0
KHA3 140106Z 08006KT 14/M01 A2985 RMK A01 T01351010  RH  037%=      5-min Rain = 0
KHA3 140107Z 08006KT 14/M01 A2985 RMK A01 T01351010  RH  037%=      5-min Rain = 0
KHA3 140108Z 08006KT 14/M01 A2985 RMK A01 T01351009  RH  037%=      5-min Rain = 0
KHA3 140109Z 07006KT 14/M01 A2985 RMK A01 T01351009  RH  037%=      5-min Rain = 0
KHA3 140110Z 07006KT 14/M01 A2985 RMK A01 T01361008  RH  037%=      5-min Rain = 0
KHA3 140111Z 08006KT 14/M01 A2985 RMK A01 T01361009  RH  037%=      5-min Rain = 0
KHA3 140112Z 08006KT 14/M01 A2985 RMK A01 T01361009  RH  037%=      5-min Rain = 0
KHA3 140113Z 08006KT 14/M01 A2985 RMK A01 T01371009  RH  037%=      5-min Rain = 0
KHA3 140114Z 08006KT 14/M01 A2985 RMK A01 T01361009  RH  037%=      5-min Rain = 0
KHA3 140115Z 08005KT 14/M01 A2985 RMK A01 T01361010  RH  037%=      5-min Rain = 0
KHA3 140116Z 08006KT 14/M01 A2985 RMK A01 T01361010  RH  037%=      5-min Rain = 0
KHA3 140117Z 08006KT 14/M01 A2985 RMK A01 T01361010  RH  037%=      5-min Rain = 0
KHA3 140118Z 08006KT 14/M01 A2985 RMK A01 T01361010  RH  036%=      5-min Rain = 0
KHA3 140119Z 08006KT 14/M01 A2985 RMK A01 T01361010  RH  036%=      5-min Rain = 0
KHA3 140120Z 08006KT 14/M01 A2985 RMK A01 T01361011  RH  036%=      5-min Rain = 0
KHA3 140121Z 08006KT 14/M01 A2985 RMK A01 T01361011  RH  036%=      5-min Rain = 0
KHA3 140122Z 08006KT 14/M01 A2985 RMK A01 T01361011  RH  036%=      5-min Rain = 0
KHA3 140123Z 08006KT 14/M01 A2985 RMK A01 T01371012  RH  036%=      5-min Rain = 0
KHA3 140124Z 08006KT 14/M01 A2985 RMK A01 T01371012  RH  036%=      5-min Rain = 0
KHA3 140125Z 08006KT 14/M01 A2984 RMK A01 T01371012  RH  036%=      5-min Rain = 0
KHA3 140126Z 08006KT 14/M01 A2985 RMK A01 T01371012  RH  036%=      5-min Rain = 0
KHA3 140127Z 08006KT 14/M01 A2985 RMK A01 T01371012  RH  036%=      5-min Rain = 0
KHA3 140128Z 08006KT 14/M01 A2985 RMK A01 T01351012  RH  036%=      5-min Rain = 0
KHA3 140129Z 08006KT 14/M01 A2985 RMK A01 T01351013  RH  036%=      5-min Rain = 0
KHA3 140130Z 08006KT 14/M01 A2985 RMK A01 T01351013  RH  036%=      5-min Rain = 0
KHA3 140131Z 08006KT 14/M01 A2985 RMK A01 T01351013  RH  036%=      5-min Rain = 0
KHA3 140132Z 08006KT 14/M01 A2985 RMK A01 T01351013  RH  036%=      5-min Rain = 0
KHA3 140133Z 08006KT 14/M01 A2985 RMK A01 T01361013  RH  036%=      5-min Rain = 0
KHA3 140134Z 08006KT 14/M01 A2985 RMK A01 T01361013  RH  036%=      5-min Rain = 0
KHA3 140135Z 08006KT 14/M01 A2985 RMK A01 T01361013  RH  036%=      5-min Rain = 0
KHA3 140136Z 08006KT 14/M01 A2985 RMK A01 T01351013  RH  036%=      5-min Rain = 0
KHA3 140137Z 08006KT 14/M01 A2985 RMK A01 T01351013  RH  036%=      5-min Rain = 0
KHA3 140138Z 09006KT 13/M01 A2985 RMK A01 T01331013  RH  036%=      5-min Rain = 0
KHA3 140139Z 09006KT 13/M01 A2985 RMK A01 T01321013  RH  037%=      5-min Rain = 0
KHA3 140140Z 10006KT 13/M01 A2985 RMK A01 T01321012  RH  037%=      5-min Rain = 0
KHA3 140141Z 12006KT 13/M01 A2985 RMK A01 T01321012  RH  037%=      5-min Rain = 0
KHA3 140142Z 13007KT 13/M01 A2985 RMK A01 T01271011  RH  039%=      5-min Rain = 0
KHA3 140143Z 12007KT 12/M01 A2985 RMK A01 T01191010  RH  041%=      5-min Rain = 0
KHA3 140144Z 12007KT 12/M01 A2985 RMK A01 T01161009  RH  042%=      5-min Rain = 0
KHA3 140145Z 13005KT 12/M01 A2986 RMK A01 T01151006  RH  043%=      5-min Rain = 0
KHA3 140146Z 13006KT 11/M01 A2986 RMK A01 T01141007  RH  043%=      5-min Rain = 0
KHA3 140147Z 13006KT 11/M01 A2986 RMK A01 T01121008  RH  043%=      5-min Rain = 0
KHA3 140148Z 13006KT 11/M01 A2986 RMK A01 T01111008  RH  044%=      5-min Rain = 0
KHA3 140149Z 13006KT 11/M01 A2986 RMK A01 T01101008  RH  044%=      5-min Rain = 0
KHA3 140150Z 13006KT 11/M01 A2986 RMK A01 T01101008  RH  044%=      5-min Rain = 0
KHA3 140151Z 13006KT 11/M01 A2986 RMK A01 T01101009  RH  044%=      5-min Rain = 0
KHA3 140152Z 12005KT 11/M01 A2986 RMK A01 T01101008  RH  044%=      5-min Rain = 0
KHA3 140153Z 12006KT 11/M01 A2987 RMK A01 T01121008  RH  043%=      5-min Rain = 0
KHA3 140154Z 12005KT 11/M01 A2987 RMK A01 T01131008  RH  043%=      5-min Rain = 0
KHA3 140155Z 12006KT 12/M01 A2987 RMK A01 T01161008  RH  042%=      5-min Rain = 0
KHA3 140156Z 12005KT 12/M01 A2987 RMK A01 T01191008  RH  041%=      5-min Rain = 0
KHA3 140157Z 12005KT 12/M01 A2987 RMK A01 T01231008  RH  040%=      5-min Rain = 0
KHA3 140158Z 12005KT 13/M01 A2987 RMK A01 T01251008  RH  040%=      5-min Rain = 0
KHA3 140159Z 12005KT 13/M01 A2987 RMK A01 T01271009  RH  039%=      5-min Rain = 0
KHA3 140200Z 12006KT 13/M01 A2987 RMK A01 T01291009  RH  039%=      5-min Rain = 0
KHA3 140201Z 12005KT 13/M01 A2987 RMK A01 T01301009  RH  038%=      5-min Rain = 0
KHA3 140202Z 12005KT 13/M01 A2987 RMK A01 T01321009  RH  038%=      5-min Rain = 0
KHA3 140203Z 11005KT 13/M01 A2987 RMK A01 T01321010  RH  038%=      5-min Rain = 0
KHA3 140204Z 12006KT 13/M01 A2987 RMK A01 T01311009  RH  038%=      5-min Rain = 0
KHA3 140205Z 12005KT 13/M01 A2987 RMK A01 T01281009  RH  039%=      5-min Rain = 0
KHA3 140206Z 12006KT 12/M01 A2987 RMK A01 T01241009  RH  040%=      5-min Rain = 0
KHA3 140207Z 12005KT 12/M01 A2987 RMK A01 T01211008  RH  041%=      5-min Rain = 0
KHA3 140208Z 12006KT 12/M01 A2987 RMK A01 T01181008  RH  042%=      5-min Rain = 0
KHA3 140209Z 12006KT 12/M01 A2987 RMK A01 T01151008  RH  042%=      5-min Rain = 0
KHA3 140210Z 12006KT 11/M01 A2987 RMK A01 T01131008  RH  043%=      5-min Rain = 0
KHA3 140211Z 13006KT 11/M01 A2987 RMK A01 T01121008  RH  043%=      5-min Rain = 0
KHA3 140212Z 13006KT 11/M01 A2987 RMK A01 T01111008  RH  044%=      5-min Rain = 0
KHA3 140213Z 13006KT 11/M01 A2987 RMK A01 T01101007  RH  044%=      5-min Rain = 0
KHA3 140214Z 12006KT 11/M01 A2987 RMK A01 T01091006  RH  045%=      5-min Rain = 0
KHA3 140215Z 12006KT 11/M01 A2987 RMK A01 T01081006  RH  045%=      5-min Rain = 0
KHA3 140216Z 13006KT 11/M01 A2987 RMK A01 T01091006  RH  045%=      5-min Rain = 0
KHA3 140217Z 13006KT 11/M01 A2987 RMK A01 T01101005  RH  045%=      5-min Rain = 0
KHA3 140218Z 13006KT 11/M01 A2987 RMK A01 T01101005  RH  045%=      5-min Rain = 0
KHA3 140219Z 13006KT 11/M00 A2987 RMK A01 T01101004  RH  045%=      5-min Rain = 0
KHA3 140220Z 12006KT 11/M00 A2987 RMK A01 T01101004  RH  045%=      5-min Rain = 0
KHA3 140221Z 12006KT 11/M00 A2987 RMK A01 T01101004  RH  045%=      5-min Rain = 0
KHA3 140222Z 12007KT 11/M00 A2987 RMK A01 T01101003  RH  045%=      5-min Rain = 0
KHA3 140223Z 12006KT 11/M00 A2987 RMK A01 T01111003  RH  045%=      5-min Rain = 0
KHA3 140224Z 11006KT 11/M00 A2987 RMK A01 T01131002  RH  045%=      5-min Rain = 0
KHA3 140225Z 11006KT 12/M00 A2987 RMK A01 T01151002  RH  045%=      5-min Rain = 0
KHA3 140226Z 12005KT 12/M00 A2987 RMK A01 T01151002  RH  044%=      5-min Rain = 0
KHA3 140227Z 12005KT 12/M00 A2987 RMK A01 T01151002  RH  045%=      5-min Rain = 0
KHA3 140228Z 12005KT 11/M00 A2987 RMK A01 T01141002  RH  045%=      5-min Rain = 0
KHA3 140229Z 12005KT 11/M00 A2987 RMK A01 T01121002  RH  045%=      5-min Rain = 0
KHA3 140230Z 13006KT 11/M00 A2987 RMK A01 T01111001  RH  046%=      5-min Rain = 0
KHA3 140231Z 13006KT 11/M00 A2987 RMK A01 T01091002  RH  046%=      5-min Rain = 0
KHA3 140232Z 14006KT 11/M00 A2987 RMK A01 T01071002  RH  047%=      5-min Rain = 0
KHA3 140233Z 14006KT 11/M00 A2987 RMK A01 T01051002  RH  048%=      5-min Rain = 0
KHA3 140234Z 15006KT 10/M00 A2987 RMK A01 T01041001  RH  048%=      5-min Rain = 0
KHA3 140235Z 14006KT 10/00 A2988 RMK A01 T010300-0  RH  049%=      5-min Rain = 0
KHA3 140236Z 14006KT 10/M00 A2988 RMK A01 T01021001  RH  049%=      5-min Rain = 0
KHA3 140237Z 14005KT 10/M00 A2987 RMK A01 T01021001  RH  049%=      5-min Rain = 0
KHA3 140238Z 13005KT 10/00 A2987 RMK A01 T010300-0  RH  049%=      5-min Rain = 0
KHA3 140239Z 13005KT 11/00 A2987 RMK A01 T01060001  RH  048%=      5-min Rain = 0
KHA3 140240Z 14005KT 11/00 A2987 RMK A01 T01090001  RH  047%=      5-min Rain = 0
KHA3 140241Z 13004KT 11/00 A2987 RMK A01 T01110001  RH  046%=      5-min Rain = 0
KHA3 140242Z 12002KT 11/M00 A2987 RMK A01 T01071003  RH  046%=      5-min Rain = 0
KHA3 140243Z 02002KT 10/M01 A2987 RMK A01 T00991008  RH  047%=      5-min Rain = 0
KHA3 140244Z 02003KT 09/M01 A2987 RMK A01 T00901011  RH  049%=      5-min Rain = 0
KHA3 140245Z 02002KT 08/M01 A2987 RMK A01 T00821012  RH  051%=      5-min Rain = 0
KHA3 140246Z 01004KT 08/M01 A2987 RMK A01 T00771012  RH  053%=      5-min Rain = 0
KHA3 140247Z 02003KT 07/M01 A2987 RMK A01 T00741011  RH  055%=      5-min Rain = 0
KHA3 140248Z 04003KT 07/M01 A2987 RMK A01 T00741011  RH  055%=      5-min Rain = 0
KHA3 140249Z 08002KT 08/M01 A2987 RMK A01 T00761009  RH  055%=      5-min Rain = 0
KHA3 140250Z 08002KT 08/M01 A2987 RMK A01 T00781009  RH  054%=      5-min Rain = 0
KHA3 140251Z 07001KT 08/M01 A2987 RMK A01 T00821007  RH  053%=      5-min Rain = 0
KHA3 140252Z 03001KT 09/M01 A2987 RMK A01 T00861008  RH  052%=      5-min Rain = 0
KHA3 140253Z 03001KT 09/M01 A2987 RMK A01 T00881008  RH  051%=      5-min Rain = 0
KHA3 140254Z 02001KT 09/M01 A2987 RMK A01 T00901008  RH  050%=      5-min Rain = 0
KHA3 140255Z 02000KT 09/M01 A2987 RMK A01 T00921009  RH  049%=      5-min Rain = 0
KHA3 140256Z 00000KT 09/M01 A2987 RMK A01 T00941009  RH  049%=      5-min Rain = 0
KHA3 140257Z 00000KT 10/M01 A2987 RMK A01 T00951009  RH  048%=      5-min Rain = 0
KHA3 140258Z 00000KT 10/M01 A2987 RMK A01 T00961009  RH  048%=      5-min Rain = 0
KHA3 140259Z 28001KT 10/M01 A2987 RMK A01 T00961009  RH  048%=      5-min Rain = 0
KHA3 140300Z 26001KT 10/M01 A2987 RMK A01 T00971009  RH  047%=      5-min Rain = 0
KHA3 140301Z 26001KT 10/M01 A2987 RMK A01 T00991009  RH  047%=      5-min Rain = 0
KHA3 140302Z 29001KT 10/M01 A2988 RMK A01 T01001008  RH  047%=      5-min Rain = 0
KHA3 140303Z 30001KT 10/M01 A2988 RMK A01 T01021008  RH  046%=      5-min Rain = 0
KHA3 140304Z 31001KT 10/M01 A2988 RMK A01 T01041008  RH  046%=      5-min Rain = 0
KHA3 140305Z 33002KT 11/M01 A2987 RMK A01 T01051009  RH  045%=      5-min Rain = 0
KHA3 140306Z 33002KT 11/M01 A2987 RMK A01 T01051009  RH  045%=      5-min Rain = 0
KHA3 140307Z 33002KT 11/M01 A2987 RMK A01 T01051009  RH  045%=      5-min Rain = 0
KHA3 140308Z 34001KT 11/M01 A2987 RMK A01 T01051010  RH  045%=      5-min Rain = 0
KHA3 140309Z 34002KT 11/M01 A2987 RMK A01 T01051010  RH  045%=      5-min Rain = 0
KHA3 140310Z 33002KT 10/M01 A2987 RMK A01 T01041010  RH  045%=      5-min Rain = 0
KHA3 140311Z 31002KT 10/M01 A2987 RMK A01 T01031010  RH  045%=      5-min Rain = 0
KHA3 140312Z 31002KT 10/M01 A2987 RMK A01 T01031010  RH  045%=      5-min Rain = 0
KHA3 140313Z 30002KT 10/M01 A2987 RMK A01 T01031010  RH  045%=      5-min Rain = 0
KHA3 140314Z 30002KT 10/M01 A2987 RMK A01 T01031010  RH  045%=      5-min Rain = 0
KHA3 140315Z 31002KT 10/M01 A2987 RMK A01 T01011010  RH  046%=      5-min Rain = 0
KHA3 140316Z 31001KT 10/M01 A2987 RMK A01 T00981011  RH  046%=      5-min Rain = 0
KHA3 140317Z 31001KT 10/M01 A2987 RMK A01 T00971011  RH  047%=      5-min Rain = 0
KHA3 140318Z 31001KT 10/M01 A2987 RMK A01 T00951010  RH  048%=      5-min Rain = 0
KHA3 140319Z 32002KT 10/M01 A2987 RMK A01 T00951010  RH  048%=      5-min Rain = 0
KHA3 140320Z 32002KT 09/M01 A2987 RMK A01 T00941010  RH  048%=      5-min Rain = 0
KHA3 140321Z 32002KT 09/M01 A2988 RMK A01 T00941010  RH  048%=      5-min Rain = 0
KHA3 140322Z 33002KT 09/M01 A2988 RMK A01 T00941011  RH  048%=      5-min Rain = 0
KHA3 140323Z 33002KT 09/M01 A2987 RMK A01 T00941011  RH  048%=      5-min Rain = 0
KHA3 140324Z 33002KT 10/M01 A2987 RMK A01 T00951011  RH  048%=      5-min Rain = 0
KHA3 140325Z 33002KT 10/M01 A2987 RMK A01 T00951011  RH  047%=      5-min Rain = 0
KHA3 140326Z 34002KT 10/M01 A2987 RMK A01 T00961011  RH  047%=      5-min Rain = 0
KHA3 140327Z 34002KT 10/M01 A2987 RMK A01 T00971011  RH  047%=      5-min Rain = 0
KHA3 140328Z 34002KT 10/M01 A2987 RMK A01 T00981011  RH  046%=      5-min Rain = 0
KHA3 140329Z 34003KT 10/M01 A2987 RMK A01 T01001010  RH  046%=      5-min Rain = 0
KHA3 140330Z 34003KT 10/M01 A2987 RMK A01 T01021010  RH  046%=      5-min Rain = 0
KHA3 140331Z 34003KT 10/M01 A2987 RMK A01 T01021010  RH  046%=      5-min Rain = 0
KHA3 140332Z 34003KT 10/M01 A2987 RMK A01 T01011010  RH  046%=      5-min Rain = 0
KHA3 140333Z 34003KT 10/M01 A2987 RMK A01 T01001010  RH  046%=      5-min Rain = 0
KHA3 140334Z 33003KT 10/M01 A2987 RMK A01 T00991011  RH  046%=      5-min Rain = 0
KHA3 140335Z 33003KT 10/M01 A2987 RMK A01 T00991011  RH  046%=      5-min Rain = 0
KHA3 140336Z 32003KT 10/M01 A2987 RMK A01 T00981011  RH  046%=      5-min Rain = 0
KHA3 140337Z 32003KT 10/M01 A2987 RMK A01 T00971011  RH  047%=      5-min Rain = 0
KHA3 140338Z 32003KT 10/M01 A2987 RMK A01 T00961011  RH  047%=      5-min Rain = 0
KHA3 140339Z 33003KT 10/M01 A2987 RMK A01 T00951011  RH  048%=      5-min Rain = 0
KHA3 140340Z 34003KT 09/M01 A2987 RMK A01 T00941012  RH  048%=      5-min Rain = 0
KHA3 140341Z 34003KT 09/M01 A2987 RMK A01 T00941011  RH  048%=      5-min Rain = 0
KHA3 140342Z 34003KT 09/M01 A2987 RMK A01 T00941011  RH  048%=      5-min Rain = 0
KHA3 140343Z 34003KT 09/M01 A2987 RMK A01 T00941011  RH  048%=      5-min Rain = 0
KHA3 140344Z 33003KT 09/M01 A2988 RMK A01 T00941012  RH  048%=      5-min Rain = 0
KHA3 140345Z 33002KT 09/M01 A2988 RMK A01 T00941011  RH  048%=      5-min Rain = 0
KHA3 140346Z 33002KT 09/M01 A2988 RMK A01 T00941012  RH  048%=      5-min Rain = 0
KHA3 140347Z 32002KT 09/M01 A2988 RMK A01 T00931012  RH  048%=      5-min Rain = 0
KHA3 140348Z 32002KT 09/M01 A2988 RMK A01 T00921012  RH  048%=      5-min Rain = 0
KHA3 140349Z 31003KT 09/M01 A2988 RMK A01 T00911012  RH  048%=      5-min Rain = 0
KHA3 140350Z 31004KT 09/M01 A2988 RMK A01 T00911011  RH  049%=      5-min Rain = 0
KHA3 140351Z 31004KT 09/M01 A2988 RMK A01 T00911011  RH  049%=      5-min Rain = 0
KHA3 140352Z 31003KT 09/M01 A2988 RMK A01 T00901011  RH  049%=      5-min Rain = 0
KHA3 140353Z 32003KT 09/M01 A2988 RMK A01 T00901011  RH  049%=      5-min Rain = 0
KHA3 140354Z 33003KT 09/M01 A2988 RMK A01 T00891011  RH  049%=      5-min Rain = 0
KHA3 140355Z 33003KT 09/M01 A2988 RMK A01 T00891011  RH  050%=      5-min Rain = 0
KHA3 140356Z 32004KT 09/M01 A2988 RMK A01 T00881011  RH  050%=      5-min Rain = 0
KHA3 140357Z 31004KT 09/M01 A2989 RMK A01 T00881011  RH  050%=      5-min Rain = 0
KHA3 140358Z 31004KT 09/M01 A2989 RMK A01 T00881011  RH  050%=      5-min Rain = 0
KHA3 140359Z 30003KT 09/M01 A2989 RMK A01 T00881011  RH  050%=      5-min Rain = 0
KHA3 140400Z 29003KT 09/M01 A2989 RMK A01 T00871010  RH  050%=      5-min Rain = 0
KHA3 140401Z 28003KT 09/M01 A2989 RMK A01 T00861010  RH  051%=      5-min Rain = 0
KHA3 140402Z 28003KT 08/M01 A2989 RMK A01 T00841010  RH  052%=      5-min Rain = 0
KHA3 140403Z 27003KT 08/M01 A2989 RMK A01 T00831010  RH  052%=      5-min Rain = 0
KHA3 140404Z 28002KT 08/M01 A2989 RMK A01 T00821010  RH  052%=      5-min Rain = 0
KHA3 140405Z 29002KT 08/M01 A2989 RMK A01 T00821010  RH  053%=      5-min Rain = 0
KHA3 140406Z 30002KT 08/M01 A2989 RMK A01 T00811010  RH  053%=      5-min Rain = 0
KHA3 140407Z 32002KT 08/M01 A2989 RMK A01 T00811010  RH  053%=      5-min Rain = 0
KHA3 140408Z 32002KT 08/M01 A2989 RMK A01 T00811010  RH  053%=      5-min Rain = 0
KHA3 140409Z 32002KT 08/M01 A2989 RMK A01 T00811009  RH  053%=      5-min Rain = 0
KHA3 140410Z 32003KT 08/M01 A299 RMK A01 T00801010  RH  053%=      5-min Rain = 0
KHA3 140411Z 32003KT 08/M01 A299 RMK A01 T00801009  RH  053%=      5-min Rain = 0
KHA3 140412Z 32004KT 08/M01 A299 RMK A01 T00801010  RH  053%=      5-min Rain = 0
KHA3 140413Z 31004KT 08/M01 A299 RMK A01 T00801010  RH  053%=      5-min Rain = 0
KHA3 140414Z 31004KT 08/M01 A299 RMK A01 T00801010  RH  053%=      5-min Rain = 0
KHA3 140415Z 30004KT 08/M01 A299 RMK A01 T00801010  RH  053%=      5-min Rain = 0
KHA3 140416Z 29004KT 08/M01 A299 RMK A01 T00811010  RH  053%=      5-min Rain = 0
KHA3 140417Z 28003KT 08/M01 A2991 RMK A01 T00801009  RH  053%=      5-min Rain = 0
KHA3 140418Z 27004KT 08/M01 A2991 RMK A01 T00791009  RH  054%=      5-min Rain = 0
KHA3 140419Z 27004KT 08/M01 A2991 RMK A01 T00771009  RH  054%=      5-min Rain = 0
KHA3 140420Z 26005KT 08/M01 A2991 RMK A01 T00761009  RH  055%=      5-min Rain = 0
KHA3 140421Z 25005KT 07/M01 A2991 RMK A01 T00741008  RH  056%=      5-min Rain = 0
KHA3 140422Z 25005KT 07/M01 A2991 RMK A01 T00711008  RH  057%=      5-min Rain = 0
KHA3 140423Z 25005KT 07/M01 A2991 RMK A01 T00661009  RH  058%=      5-min Rain = 0
KHA3 140424Z 25005KT 06/M01 A2991 RMK A01 T00621011  RH  060%=      5-min Rain = 0
KHA3 140425Z 26004KT 06/M01 A299 RMK A01 T00601011  RH  061%=      5-min Rain = 0
KHA3 140426Z 26004KT 06/M01 A299 RMK A01 T00591011  RH  061%=      5-min Rain = 0
KHA3 140427Z 26004KT 06/M01 A299 RMK A01 T00621011  RH  060%=      5-min Rain = 0
KHA3 140428Z 27004KT 06/M01 A299 RMK A01 T00641011  RH  059%=      5-min Rain = 0
KHA3 140429Z 27004KT 07/M01 A299 RMK A01 T00651011  RH  058%=      5-min Rain = 0
KHA3 140430Z 26004KT 07/M01 A299 RMK A01 T00661011  RH  058%=      5-min Rain = 0
KHA3 140431Z 26004KT 07/M01 A299 RMK A01 T00671011  RH  058%=      5-min Rain = 0
KHA3 140432Z 25004KT 07/M01 A299 RMK A01 T00681011  RH  057%=      5-min Rain = 0
KHA3 140433Z 24004KT 07/M01 A299 RMK A01 T00691011  RH  057%=      5-min Rain = 0
KHA3 140434Z 24005KT 07/M01 A299 RMK A01 T00681011  RH  057%=      5-min Rain = 0
KHA3 140435Z 24004KT 07/M01 A2991 RMK A01 T00651012  RH  058%=      5-min Rain = 0
KHA3 140436Z 24004KT 06/M01 A2991 RMK A01 T00601012  RH  060%=      5-min Rain = 0
KHA3 140437Z 24004KT 06/M01 A2991 RMK A01 T00571012  RH  061%=      5-min Rain = 0
KHA3 140438Z 24004KT 06/M01 A2991 RMK A01 T00571011  RH  062%=      5-min Rain = 0
KHA3 140439Z 25004KT 06/M01 A299 RMK A01 T00591011  RH  061%=      5-min Rain = 0
KHA3 140440Z 25004KT 06/M01 A299 RMK A01 T00601011  RH  061%=      5-min Rain = 0
KHA3 140441Z 26004KT 06/M01 A299 RMK A01 T00611010  RH  060%=      5-min Rain = 0
KHA3 140442Z 27004KT 06/M01 A299 RMK A01 T00621011  RH  060%=      5-min Rain = 0
KHA3 140443Z 27003KT 06/M01 A2991 RMK A01 T00631011  RH  059%=      5-min Rain = 0
KHA3 140444Z 28003KT 06/M01 A2991 RMK A01 T00641011  RH  059%=      5-min Rain = 0
KHA3 140445Z 28003KT 07/M01 A2991 RMK A01 T00661011  RH  058%=      5-min Rain = 0
KHA3 140446Z 28004KT 07/M01 A2991 RMK A01 T00671011  RH  058%=      5-min Rain = 0
KHA3 140447Z 28004KT 07/M01 A2991 RMK A01 T00681011  RH  057%=      5-min Rain = 0
KHA3 140448Z 28004KT 07/M01 A2991 RMK A01 T00681011  RH  057%=      5-min Rain = 0
KHA3 140449Z 28003KT 07/M01 A2991 RMK A01 T00691011  RH  057%=      5-min Rain = 0
KHA3 140450Z 27003KT 07/M01 A2991 RMK A01 T00691011  RH  057%=      5-min Rain = 0
KHA3 140451Z 27004KT 07/M01 A2991 RMK A01 T00691010  RH  057%=      5-min Rain = 0
KHA3 140452Z 28004KT 07/M01 A2991 RMK A01 T00691010  RH  057%=      5-min Rain = 0
KHA3 140453Z 27004KT 07/M01 A2991 RMK A01 T00691010  RH  057%=      5-min Rain = 0
KHA3 140454Z 28004KT 07/M01 A2991 RMK A01 T00691011  RH  057%=      5-min Rain = 0
KHA3 140455Z 29004KT 07/M01 A2991 RMK A01 T00691011  RH  057%=      5-min Rain = 0
KHA3 140456Z 30004KT 07/M01 A2991 RMK A01 T00691011  RH  057%=      5-min Rain = 0
KHA3 140457Z 31004KT 07/M01 A2991 RMK A01 T00691011  RH  057%=      5-min Rain = 0
KHA3 140458Z 32004KT 07/M01 A2991 RMK A01 T00691011  RH  056%=      5-min Rain = 0
KHA3 140459Z 33004KT 07/M01 A2991 RMK A01 T00701011  RH  056%=      5-min Rain = 0
KHA3 140500Z 33005KT 07/M01 A2991 RMK A01 T00711011  RH  056%=      5-min Rain = 0
KHA3 140501Z 33005KT 07/M01 A2991 RMK A01 T00721011  RH  055%=      5-min Rain = 0
KHA3 140502Z 33005KT 07/M01 A2991 RMK A01 T00721012  RH  055%=      5-min Rain = 0
KHA3 140503Z 32005KT 07/M01 A2991 RMK A01 T00731011  RH  055%=      5-min Rain = 0
KHA3 140504Z 32004KT 07/M01 A2991 RMK A01 T00731011  RH  055%=      5-min Rain = 0
KHA3 140505Z 32004KT 07/M01 A2991 RMK A01 T00731011  RH  055%=      5-min Rain = 0
KHA3 140506Z 32004KT 07/M01 A2991 RMK A01 T00721012  RH  055%=      5-min Rain = 0
KHA3 140507Z 31004KT 07/M01 A2991 RMK A01 T00721012  RH  055%=      5-min Rain = 0
KHA3 140508Z 30003KT 07/M01 A2991 RMK A01 T00711012  RH  056%=      5-min Rain = 0
KHA3 140509Z 31002KT 07/M01 A2991 RMK A01 T00701012  RH  056%=      5-min Rain = 0
KHA3 140510Z 32002KT 07/M01 A299 RMK A01 T00691012  RH  056%=      5-min Rain = 0
KHA3 140511Z 32002KT 07/M01 A299 RMK A01 T00691012  RH  056%=      5-min Rain = 0
KHA3 140512Z 33002KT 07/M01 A299 RMK A01 T00681012  RH  057%=      5-min Rain = 0
KHA3 140513Z 33002KT 07/M01 A299 RMK A01 T00671011  RH  057%=      5-min Rain = 0
KHA3 140514Z 33002KT 07/M01 A299 RMK A01 T00661012  RH  058%=      5-min Rain = 0
KHA3 140515Z 33002KT 07/M01 A299 RMK A01 T00661012  RH  058%=      5-min Rain = 0
KHA3 140516Z 34003KT 07/M01 A299 RMK A01 T00661012  RH  057%=      5-min Rain = 0
KHA3 140517Z 34002KT 07/M01 A299 RMK A01 T00671012  RH  057%=      5-min Rain = 0
KHA3 140518Z 34002KT 07/M01 A299 RMK A01 T00671012  RH  057%=      5-min Rain = 0
KHA3 140519Z 34002KT 07/M01 A299 RMK A01 T00681012  RH  057%=      5-min Rain = 0
KHA3 140520Z 34002KT 07/M01 A299 RMK A01 T00681012  RH  057%=      5-min Rain = 0
KHA3 140521Z 34002KT 07/M01 A299 RMK A01 T00681012  RH  057%=      5-min Rain = 0
KHA3 140522Z 35002KT 07/M01 A299 RMK A01 T00681012  RH  057%=      5-min Rain = 0
KHA3 140523Z 35002KT 07/M01 A299 RMK A01 T00681012  RH  057%=      5-min Rain = 0
KHA3 140524Z 35002KT 07/M01 A299 RMK A01 T00681012  RH  057%=      5-min Rain = 0
KHA3 140525Z 35002KT 07/M01 A299 RMK A01 T00681012  RH  057%=      5-min Rain = 0
KHA3 140526Z 35003KT 07/M01 A299 RMK A01 T00671012  RH  057%=      5-min Rain = 0
KHA3 140527Z 36003KT 07/M01 A299 RMK A01 T00671012  RH  057%=      5-min Rain = 0
KHA3 140528Z 00003KT 07/M01 A299 RMK A01 T00671012  RH  057%=      5-min Rain = 0
KHA3 140529Z 01003KT 07/M01 A299 RMK A01 T00681012  RH  057%=      5-min Rain = 0
KHA3 140530Z 01003KT 07/M01 A299 RMK A01 T00681012  RH  057%=      5-min Rain = 0
KHA3 140531Z 01003KT 07/M01 A299 RMK A01 T00671012  RH  057%=      5-min Rain = 0
KHA3 140532Z 02003KT 07/M01 A299 RMK A01 T00671012  RH  057%=      5-min Rain = 0
KHA3 140533Z 01003KT 07/M01 A299 RMK A01 T00661012  RH  057%=      5-min Rain = 0
KHA3 140534Z 01002KT 07/M01 A299 RMK A01 T00661012  RH  057%=      5-min Rain = 0
KHA3 140535Z 01002KT 07/M01 A2991 RMK A01 T00651012  RH  058%=      5-min Rain = 0
KHA3 140536Z 00002KT 06/M01 A2991 RMK A01 T00641013  RH  058%=      5-min Rain = 0
KHA3 140537Z 00002KT 06/M01 A299 RMK A01 T00641013  RH  058%=      5-min Rain = 0
KHA3 140538Z 01002KT 06/M01 A299 RMK A01 T00631013  RH  058%=      5-min Rain = 0
KHA3 140539Z 03002KT 06/M01 A299 RMK A01 T00631013  RH  058%=      5-min Rain = 0
KHA3 140540Z 04002KT 06/M01 A299 RMK A01 T00621013  RH  059%=      5-min Rain = 0
KHA3 140541Z 04002KT 06/M01 A299 RMK A01 T00611013  RH  059%=      5-min Rain = 0
KHA3 140542Z 03002KT 06/M01 A2989 RMK A01 T00601013  RH  059%=      5-min Rain = 0
KHA3 140543Z 03003KT 06/M01 A2989 RMK A01 T00601013  RH  060%=      5-min Rain = 0
KHA3 140544Z 03003KT 06/M01 A2989 RMK A01 T00601013  RH  060%=      5-min Rain = 0
KHA3 140545Z 04003KT 06/M01 A2989 RMK A01 T00601012  RH  060%=      5-min Rain = 0
KHA3 140546Z 04004KT 06/M01 A2989 RMK A01 T00611012  RH  060%=      5-min Rain = 0
KHA3 140547Z 04004KT 06/M01 A299 RMK A01 T00611012  RH  059%=      5-min Rain = 0
KHA3 140548Z 04003KT 06/M01 A299 RMK A01 T00611012  RH  059%=      5-min Rain = 0
KHA3 140549Z 04003KT 06/M01 A299 RMK A01 T00601012  RH  060%=      5-min Rain = 0
KHA3 140550Z 04003KT 06/M01 A299 RMK A01 T00601012  RH  060%=      5-min Rain = 0
KHA3 140551Z 04003KT 06/M01 A2991 RMK A01 T00601013  RH  060%=      5-min Rain = 0
KHA3 140552Z 03002KT 06/M01 A2991 RMK A01 T00591013  RH  060%=      5-min Rain = 0
KHA3 140553Z 03002KT 06/M01 A2991 RMK A01 T00581013  RH  060%=      5-min Rain = 0
KHA3 140554Z 03002KT 06/M01 A2991 RMK A01 T00571013  RH  061%=      5-min Rain = 0
KHA3 140555Z 03002KT 06/M01 A2991 RMK A01 T00571013  RH  061%=      5-min Rain = 0
KHA3 140556Z 02002KT 06/M01 A2991 RMK A01 T00571012  RH  061%=      5-min Rain = 0
KHA3 140557Z 01001KT 06/M01 A2991 RMK A01 T00571012  RH  061%=      5-min Rain = 0
KHA3 140558Z 36001KT 06/M01 A2991 RMK A01 T00561012  RH  061%=      5-min Rain = 0
KHA3 140559Z 34000KT 06/M01 A2991 RMK A01 T00551013  RH  061%=      5-min Rain = 0

Page generated in 0.0824 seconds.